GFSWCAN_250_rhum_270.txt.gz
RH
27 26 22 17 19 25 100 100 100 100 100 100 100 100 100 100 93 87 92 97 100 100 100 100 100 100 78 76 100 100 100 100 100 100 100 100 100 100 100 100 100 100 90 76 62 55 58 52 54 61 53 42 28 24
21 21 23 19 18 18 22 100 100 100 100 100 100 100 100 100 100 91 90 90 98 100 100 82 100 88 90 77 100 100 92 92 100 100 100 100 100 100 96 96 100 97 86 84 65 58 52 50 51 48 50 37 25 27
12 14 17 21 17 15 19 53 100 100 100 100 100 100 100 100 100 100 100 95 100 100 91 96 99 99 98 88 100 100 100 100 100 99 99 94 100 100 100 99 97 88 89 77 76 74 58 54 56 42 43 33 24 28
8 10 10 14 16 13 14 20 20 98 100 100 100 100 100 100 100 100 100 100 100 100 93 97 82 68 98 82 70 92 98 100 100 93 87 92 100 100 100 100 89 89 84 71 84 59 57 56 58 45 42 25 25 26
6 6 8 10 10 11 13 20 21 30 100 100 100 100 100 100 100 100 100 100 100 100 99 83 75 90 100 69 70 94 100 100 100 100 90 100 100 100 100 87 89 90 80 75 65 63 65 57 40 41 30 22 27 26
5 5 6 7 8 10 12 18 21 20 100 100 100 100 100 100 100 100 100 100 100 100 100 91 88 79 98 99 100 100 100 100 100 96 96 96 100 100 94 89 86 83 77 74 65 72 54 49 42 35 24 25 28 20
4 5 6 7 7 10 13 18 20 25 37 100 100 100 100 100 100 100 100 100 100 100 100 100 98 98 100 100 100 100 100 100 100 100 97 100 100 97 91 78 75 84 81 76 71 60 52 45 36 27 21 27 26 12
4 4 5 5 8 10 14 17 19 26 28 64 100 100 100 100 100 100 100 100 100 100 100 100 100 100 100 100 100 100 100 100 100 100 100 100 100 100 95 83 87 80 84 78 67 61 47 36 35 21 23 27 18 9
4 5 6 7 10 12 14 17 16 20 26 46 100 100 100 100 100 100 100 100 100 100 100 100 100 100 100 100 100 100 100 100 100 100 100 100 99 92 81 92 83 94 88 74 62 61 35 39 23 21 25 22 10 9
6 7 8 10 12 13 14 14 15 18 27 74 98 100 100 100 100 100 100 100 100 100 100 100 100 100 100 100 100 100 100 100 100 100 100 100 100 100 99 93 97 86 85 74 58 35 38 28 23 26 24 13 9 9
8 8 10 11 12 13 13 14 17 21 28 52 99 100 100 100 100 100 100 100 100 100 100 100 100 100 100 100 100 100 100 100 100 100 100 100 100 100 99 100 92 98 81 52 31 39 30 23 27 27 17 9 9 10
8 10 11 12 12 13 14 17 20 20 21 46 52 95 100 100 100 100 100 100 100 100 100 100 100 100 100 100 100 100 100 100 100 100 100 100 100 100 97 97 98 79 44 32 41 31 23 27 28 21 11 8 9 12
10 10 10 11 13 13 15 16 17 18 24 54 84 99 100 100 100 100 100 100 100 100 100 100 100 100 100 100 100 100 100 100 100 100 100 100 100 99 97 93 75 36 37 42 30 26 28 30 25 13 8 8 10 12
10 11 12 13 14 14 14 15 16 17 40 86 100 100 100 100 100 100 100 100 100 100 100 100 100 100 100 100 100 100 100 100 100 100 100 100 97 93 90 58 31 43 40 32 29 31 30 28 15 9 8 8 11 12
12 12 13 13 13 14 14 15 15 17 32 99 100 100 100 100 100 100 100 100 100 100 100 100 100 100 100 100 100 100 100 100 100 100 99 96 89 72 40 43 47 38 33 32 34 32 30 19 10 8 8 10 12 11
12 12 13 12 13 13 14 14 16 20 21 30 83 100 100 100 100 100 100 100 100 100 100 100 100 100 100 100 100 100 100 100 100 100 94 80 51 40 55 45 38 34 35 38 34 32 23 11 8 8 8 11 12 10
13 15 15 14 15 16 16 16 17 18 18 21 31 64 100 100 100 100 100 100 100 100 100 100 100 100 100 100 100 100 100 100 100 85 57 51 54 57 45 40 40 39 42 36 35 27 14 9 8 8 10 11 11 10
16 15 15 16 15 14 15 16 17 17 18 19 36 76 96 100 100 100 100 100 100 100 100 100 100 100 100 100 100 100 100 90 64 65 64 67 50 49 45 48 41 45 39 38 31 17 11 8 8 9 11 11 10 9
14 12 11 12 12 13 15 17 20 25 30 33 34 34 33 32 34 44 58 77 97 100 100 100 100 100 98 90 98 86 65 72 70 73 62 51 54 56 52 41 45 44 41 34 22 12 9 8 9 11 11 11 9 8
14 17 19 19 20 20 22 23 23 25 27 30 32 38 39 44 56 77 98 99 100 100 100 99 100 89 82 81 69 75 78 78 67 59 58 59 66 52 41 46 46 45 39 26 16 10 8 8 10 11 11 10 7 7
21 22 24 22 22 22 25 28 28 31 34 43 53 59 67 68 64 72 82 99 100 92 76 71 72 72 71 78 80 84 74 68 71 68 65 74 52 44 49 47 46 44 33 18 12 9 8 10 11 10 10 8 6 7
22 22 24 23 25 27 30 32 36 39 45 50 57 62 66 78 84 81 66 50 51 60 65 74 78 77 82 88 82 73 79 79 75 75 68 52 47 52 52 48 47 39 24 14 10 8 8 11 11 9 8 6 6 7
21 21 23 23 25 27 36 37 35 36 44 52 58 66 60 48 44 50 55 57 68 79 87 86 89 92 88 79 82 87 84 80 78 66 54 47 51 52 48 48 45 34 18 12 9 8 10 11 10 8 6 5 6 8
18 18 20 22 22 23 22 23 22 23 28 35 42 45 49 51 58 66 71 82 86 90 94 96 90 87 90 94 94 88 83 74 64 55 49 50 53 51 48 50 43 25 15 11 9 8 11 12 9 6 6 6 7 8
15 17 21 21 20 20 20 21 22 24 27 35 44 53 58 68 78 83 86 92 95 96 93 88 92 96 95 94 91 86 73 63 55 52 52 51 52 50 50 49 39 22 13 10 9 9 12 12 9 6 6 6 7 8
23 22 21 20 20 22 24 26 30 39 49 53 60 83 99 98 97 94 89 82 82 89 91 97 97 98 98 91 79 71 56 52 53 53 52 52 51 51 51 46 32 18 12 10 9 9 12 12 9 6 7 7 8 8
23 23 23 23 25 28 34 42 51 56 71 94 100 100 97 94 85 77 83 84 90 94 98 98 98 98 88 77 68 54 52 54 54 54 54 51 52 51 50 44 28 16 12 10 9 10 12 12 9 6 6 7 8 8
21 22 25 29 37 45 56 68 85 94 96 97 95 91 81 74 73 83 93 96 98 99 99 98 95 86 78 66 53 54 54 56 56 56 52 51 52 52 45 38 22 14 11 9 9 10 12 12 11 7 6 7 8 8
27 34 43 48 56 64 84 90 86 77 74 74 71 67 62 69 91 99 98 99 99 98 97 93 83 75 62 52 53 52 55 56 59 55 54 55 53 53 41 31 18 12 10 9 9 10 12 12 11 8 6 7 8 8
40 43 44 51 63 80 70 60 51 45 59 64 62 68 85 97 99 100 100 100 97 92 84 80 74 62 53 54 52 56 61 61 56 57 59 53 55 46 39 23 15 12 10 8 9 10 12 12 11 9 7 7 8 8
43 42 42 42 39 36 36 41 56 70 75 90 97 99 100 100 100 99 96 95 91 84 78 73 63 55 54 57 61 65 63 58 59 61 57 55 51 42 34 18 13 10 9 8 8 10 11 11 11 10 7 6 7 7
41 43 40 40 43 42 43 56 69 85 100 100 99 96 100 100 100 97 90 88 84 76 70 58 55 56 58 63 64 62 58 58 63 60 58 55 44 39 22 15 11 9 8 8 8 9 11 10 10 10 8 6 7 7
40 41 45 56 58 61 72 84 92 97 97 91 92 97 100 100 98 97 89 82 74 67 58 54 54 58 62 62 60 58 57 59 59 58 56 53 42 27 16 12 10 8 7 8 8 10 11 10 9 10 8 6 6 7

GFSWCAN_250_rhum_273.txt.gz
RH
70 56 56 62 59 52 44 42 40 33 26 32 29 28 29 55 100 100 100 100 100 100 100 100 100 100 84 82 89 91 94 100 100 100 100 100 100 100 100 100 98 84 87 88 79 78 70 61 65 63 65 62 68 26
63 66 62 50 49 50 51 48 41 37 28 30 28 29 26 27 56 100 100 100 100 100 100 100 100 100 100 100 88 78 86 99 94 100 99 100 100 98 100 100 97 92 99 92 83 82 74 67 57 56 70 69 42 25
47 45 44 45 47 48 47 44 41 40 35 28 27 27 27 24 28 74 100 100 100 100 100 100 100 100 100 100 100 100 83 78 83 89 90 99 100 100 100 94 98 100 98 95 85 81 73 69 69 76 61 67 24 24
29 29 26 28 31 32 38 39 37 37 36 32 25 27 26 28 25 31 80 100 100 100 100 100 100 100 100 100 100 100 96 92 83 83 90 98 99 100 100 87 92 99 95 93 86 81 67 66 81 79 66 34 28 24
11 12 13 15 16 16 15 16 18 22 24 22 25 24 25 24 28 27 40 100 100 100 100 100 100 100 100 100 100 100 99 99 98 93 91 97 100 97 88 87 92 95 93 91 83 77 75 83 87 67 54 25 29 20
4 4 4 5 5 5 5 6 8 10 13 14 14 20 21 24 27 26 28 82 100 100 100 100 100 100 100 100 100 100 100 100 99 99 100 98 88 93 87 89 99 90 94 85 85 81 85 85 73 65 23 30 22 22
4 4 4 4 4 4 4 5 5 7 8 9 11 15 17 22 28 24 32 38 100 100 100 100 100 100 100 100 100 100 100 96 99 100 100 100 100 100 100 97 92 98 93 93 91 87 83 79 68 28 30 27 19 25
4 4 4 4 4 4 4 5 5 5 6 6 8 12 15 18 22 24 34 31 69 100 100 100 100 100 100 100 100 100 100 100 100 100 100 100 100 100 98 96 99 98 92 88 88 88 85 71 35 32 32 19 25 24
3 3 3 4 5 5 5 5 5 6 7 8 9 10 13 17 23 31 35 70 69 100 100 100 100 100 100 100 100 100 100 100 100 100 100 100 100 98 91 96 95 97 95 92 92 84 75 39 33 37 20 22 27 18
4 4 5 5 5 5 5 5 6 8 9 11 12 14 17 22 24 28 38 78 99 100 100 100 100 100 100 100 100 100 98 100 100 100 100 93 87 95 95 94 98 95 93 97 92 78 48 33 42 24 20 27 25 11
4 5 5 5 5 6 6 7 8 8 11 14 15 16 18 24 27 38 61 68 100 100 100 100 100 100 100 100 100 100 100 100 100 98 92 100 100 100 99 99 100 98 98 98 79 50 36 44 28 19 27 29 17 9
5 5 6 6 5 5 6 7 9 10 13 15 17 20 23 28 32 45 85 80 100 100 100 100 100 100 100 100 100 100 100 100 100 100 100 100 100 100 100 100 98 100 100 83 50 37 42 29 20 25 29 23 10 8
4 5 5 5 5 8 10 11 13 15 16 17 17 20 21 27 29 31 37 54 61 81 99 100 100 100 100 100 100 100 100 100 100 100 100 100 100 100 100 97 98 98 80 48 41 42 30 21 25 29 29 13 8 8
5 5 5 6 9 11 12 14 15 17 18 17 17 18 19 22 28 35 43 80 98 100 100 100 100 100 100 100 100 100 100 100 100 100 100 100 100 100 100 99 96 76 46 46 43 31 25 26 30 31 17 9 8 9
5 6 7 9 12 13 14 15 17 17 16 17 17 19 20 23 28 37 64 84 100 100 98 100 100 100 100 100 100 100 100 100 100 100 100 100 100 100 100 89 61 44 48 42 32 32 30 30 32 23 10 8 8 11
6 8 10 13 13 14 16 17 17 17 18 20 21 22 24 26 29 33 41 100 98 100 100 100 100 100 100 100 100 100 100 100 100 100 100 100 100 100 81 43 47 50 42 34 36 37 32 33 28 12 8 8 9 12
10 12 13 14 16 17 17 18 16 18 19 22 22 23 23 24 26 34 40 57 100 100 100 100 100 100 100 100 100 100 100 100 100 100 100 100 96 59 39 56 50 42 37 39 44 35 34 33 16 9 8 8 11 11
12 14 15 15 16 16 16 16 18 20 20 20 20 20 21 22 29 61 98 100 100 100 100 100 100 100 100 100 100 100 100 100 100 100 98 72 42 52 58 50 44 38 41 45 39 36 34 23 11 8 7 10 11 9
13 13 13 13 14 15 18 20 22 22 20 19 19 21 28 37 61 98 100 100 100 100 100 100 100 100 100 100 100 100 100 100 99 79 50 51 63 57 50 51 42 44 46 47 40 36 30 14 10 8 8 11 10 7
13 14 15 16 18 20 22 21 22 22 19 19 22 27 35 52 83 100 100 100 100 100 100 100 100 98 100 100 100 100 98 76 62 53 64 64 54 53 57 46 46 50 50 42 39 34 19 12 9 8 10 11 8 6
15 16 16 16 17 17 16 18 19 17 17 19 22 25 32 37 43 51 57 58 69 74 92 100 100 100 100 94 89 78 69 65 70 75 63 54 59 60 48 46 52 53 47 42 37 28 14 10 8 8 12 12 8 6
14 14 15 16 16 16 19 21 22 23 27 30 33 36 39 42 53 68 81 84 90 97 99 98 90 87 86 78 72 72 76 77 71 59 56 66 63 49 47 51 54 49 43 40 36 20 12 10 8 8 12 12 7 7
18 19 21 22 24 26 26 28 28 30 31 35 38 43 55 77 86 86 89 98 97 92 87 94 87 79 75 72 78 82 78 68 58 61 70 64 54 49 51 54 52 45 42 38 28 16 11 9 8 8 12 12 8 7
19 21 21 24 27 28 29 27 29 33 39 46 60 68 79 83 82 77 86 94 99 94 82 73 69 74 81 84 87 78 66 62 66 71 68 58 49 49 55 53 49 44 40 37 22 14 11 9 8 9 12 12 9 7
23 24 25 24 25 26 29 33 38 42 49 57 69 71 75 85 83 90 94 91 81 75 70 80 86 83 88 86 75 65 65 70 72 68 57 48 45 57 54 51 45 43 39 27 18 13 10 8 8 9 11 11 10 7
24 25 25 26 28 28 29 30 34 50 65 74 72 74 88 94 93 91 88 81 86 97 92 88 86 85 78 70 65 69 72 74 68 61 49 48 60 57 52 50 46 43 35 24 15 12 9 8 8 9 11 11 10 7
22 25 28 30 34 37 40 44 56 63 73 79 87 92 92 92 94 92 96 92 86 89 86 79 78 73 68 67 75 77 76 72 62 53 53 63 59 54 51 49 48 40 29 21 14 11 9 8 8 9 11 10 10 8
24 25 28 32 38 43 54 61 71 82 87 99 97 95 94 93 86 87 96 92 88 79 76 75 70 68 72 78 78 74 72 63 54 54 62 61 56 51 48 48 44 34 26 17 13 10 8 8 8 10 10 10 10 8
27 32 37 45 54 60 70 79 89 96 99 98 95 93 85 79 81 74 68 74 76 76 75 75 74 79 82 80 74 74 65 56 53 57 61 55 53 49 50 47 37 28 22 15 11 10 8 7 8 10 10 10 10 9
41 45 48 50 60 73 82 95 98 99 92 83 68 66 70 62 60 70 78 80 81 80 78 77 78 80 81 79 80 70 59 52 55 59 54 51 49 50 47 40 32 25 16 13 10 9 8 8 8 10 10 9 9 8
47 50 59 67 74 76 79 78 70 61 54 56 57 53 55 60 73 77 84 89 85 81 80 81 84 81 82 80 72 60 52 56 61 58 53 51 47 46 43 36 26 21 14 11 9 8 7 8 9 10 9 8 9 8
50 52 56 60 57 51 51 51 48 46 43 44 46 50 60 65 78 95 87 82 80 82 83 84 86 85 77 69 57 55 59 60 58 55 52 48 46 45 38 31 25 15 12 10 8 8 8 8 9 10 8 8 9 8
42 44 45 44 42 42 41 43 45 46 44 45 50 62 80 88 88 90 84 82 83 84 86 84 79 73 67 57 54 57 57 56 56 54 50 47 45 40 32 26 19 13 10 9 8 8 8 8 9 9 8 8 9 9

GFSWCAN_250_rhum_276.txt.gz
RH
85 75 92 78 64 56 60 66 69 62 58 62 73 73 57 59 64 56 47 44 48 44 42 41 39 40 50 100 100 100 100 100 100 100 100 100 98 100 100 100 100 85 83 70 73 65 81 78 72 78 69 64 61 58
78 74 71 79 81 66 62 56 59 58 63 68 62 66 69 64 54 58 58 50 45 51 50 42 36 37 41 43 94 100 100 100 100 100 100 100 100 97 100 100 100 96 94 78 88 90 93 90 80 77 67 60 56 60
81 65 63 65 52 48 45 44 57 63 71 64 59 56 65 70 71 64 58 55 54 50 44 42 43 36 37 40 43 61 100 100 100 100 100 100 100 100 100 94 98 78 84 98 90 94 93 84 80 72 60 55 62 62
58 51 44 46 44 42 39 35 36 34 36 41 33 40 53 62 62 67 65 66 58 55 50 44 45 44 36 37 39 41 71 100 100 100 100 100 100 100 100 100 100 100 100 97 93 96 92 89 83 66 54 67 67 63
40 36 31 26 23 22 21 21 24 24 23 21 22 24 24 34 52 63 58 59 57 57 59 52 44 40 40 41 37 42 43 99 100 100 100 100 100 100 100 100 100 100 100 97 94 100 95 82 69 56 69 66 69 47
19 18 14 9 7 6 5 5 5 5 5 5 6 9 12 19 29 34 33 36 51 58 55 55 43 37 34 36 36 41 48 62 100 100 100 100 100 100 100 100 100 100 100 94 100 99 84 72 61 74 64 72 57 32
6 5 4 5 5 5 5 5 5 5 5 5 6 6 6 7 8 10 13 18 22 34 42 47 44 37 34 35 32 41 56 71 90 100 100 100 100 100 100 100 100 99 93 100 94 82 76 71 77 64 74 65 39 32
6 6 5 5 5 5 4 5 5 5 5 5 6 6 7 7 7 6 8 8 8 11 17 24 29 33 34 34 36 53 98 100 100 100 100 100 100 100 100 99 88 87 97 76 82 69 75 84 68 73 74 43 34 30
5 4 4 4 4 5 5 5 5 6 6 6 6 6 7 7 7 6 6 7 7 10 14 20 25 30 33 36 50 94 100 100 100 100 100 100 100 98 93 91 84 90 88 74 70 88 94 76 74 79 49 40 34 22
4 4 4 5 5 6 6 6 7 7 6 6 7 7 7 7 7 7 8 7 8 10 14 18 30 100 77 86 100 100 100 100 100 100 100 85 89 94 83 78 87 82 81 81 95 99 83 81 81 60 46 38 23 27
4 4 4 5 5 6 6 7 7 6 6 6 6 7 7 6 6 6 7 8 8 10 14 21 79 100 100 100 100 100 100 100 100 99 89 87 82 86 89 91 100 100 99 99 98 88 86 84 69 50 41 25 27 29
4 4 4 5 5 5 6 7 6 6 6 6 6 6 6 8 8 10 12 12 14 17 23 27 84 100 100 100 100 100 100 100 100 100 99 88 96 100 100 100 100 100 93 100 93 92 89 67 51 40 26 27 31 26
3 4 4 4 5 6 6 6 7 6 6 6 6 7 7 10 12 14 15 20 22 24 33 54 100 100 100 100 100 100 100 100 100 96 100 99 100 100 100 100 100 92 98 98 97 93 64 52 41 28 28 31 30 19
4 3 4 5 6 6 6 6 6 6 6 6 7 8 12 16 19 19 19 22 26 34 46 65 92 100 100 100 100 100 100 92 94 100 100 100 100 100 100 100 95 90 100 99 95 65 53 42 32 31 29 32 26 13
4 4 5 6 6 6 6 6 7 7 8 9 11 16 18 19 21 23 26 28 31 35 49 78 100 100 100 100 100 100 99 100 100 100 100 100 100 100 100 97 93 100 100 94 62 54 41 34 33 32 33 30 16 9
5 5 6 6 6 6 7 8 8 10 12 15 18 18 19 20 21 22 24 26 28 29 31 42 60 67 73 94 100 100 100 100 100 100 100 100 100 100 99 97 100 100 86 59 56 38 35 37 35 33 34 25 10 8
5 6 6 6 7 8 8 9 11 16 20 20 19 20 20 21 21 23 25 28 30 34 54 70 78 75 76 82 87 96 100 100 100 100 100 100 100 100 100 100 100 69 61 55 36 38 42 39 35 34 32 14 9 8
6 6 6 6 7 8 9 13 18 21 21 19 19 22 24 24 25 26 28 31 32 35 43 81 96 97 98 100 100 100 100 100 100 100 100 100 100 100 99 88 66 62 52 38 41 45 45 40 35 34 22 11 8 8
5 5 6 7 10 12 14 18 20 20 20 22 24 26 28 28 29 30 30 30 36 44 59 73 84 92 99 100 100 100 100 100 100 100 100 100 99 93 74 70 59 52 42 44 49 48 46 37 33 30 14 9 8 8
8 9 11 13 15 17 18 20 20 20 21 23 24 26 31 37 41 44 55 81 85 82 88 95 99 99 100 100 100 100 100 100 100 100 100 89 80 76 66 59 52 44 44 50 52 48 42 37 34 20 11 8 7 8
13 15 16 17 17 16 17 19 20 20 24 27 33 37 39 46 57 72 95 99 99 100 100 100 100 100 100 100 100 100 100 100 98 81 81 82 70 60 59 54 46 46 53 54 53 50 40 35 28 14 10 8 7 8
14 15 16 16 17 18 20 20 22 24 26 32 34 36 38 41 49 58 74 82 85 88 94 100 100 100 100 100 99 92 85 81 86 90 78 68 57 63 59 49 49 57 59 55 50 42 39 32 18 10 8 7 7 9
15 16 15 16 18 18 20 20 22 24 27 30 36 36 39 46 51 60 75 92 99 100 100 100 99 94 89 90 86 80 90 96 86 75 65 56 66 63 52 51 56 63 57 52 46 40 36 24 13 9 8 7 7 10
16 15 16 18 21 25 26 28 32 35 38 41 45 55 69 86 100 100 100 99 100 98 98 93 89 88 80 76 91 98 90 82 70 61 59 65 66 57 53 54 61 58 52 48 41 37 33 16 10 8 7 7 8 10
28 28 30 31 30 30 30 35 44 47 61 74 91 96 100 96 88 83 90 96 100 100 100 89 80 84 94 96 89 81 73 67 62 66 69 70 64 57 54 58 61 52 48 43 37 36 25 12 9 8 7 7 8 10
28 29 30 31 38 44 49 61 73 84 86 82 87 91 75 71 87 94 93 100 99 91 85 90 96 92 86 78 77 69 64 67 70 76 77 71 61 56 58 61 55 51 45 40 36 33 17 11 8 8 7 7 9 10
25 28 32 34 42 52 62 65 71 77 84 83 83 82 82 93 97 98 96 82 79 87 87 80 75 72 76 78 67 65 71 75 81 80 74 61 56 61 62 57 52 47 42 40 37 24 13 10 8 7 7 7 9 10
25 29 31 34 37 44 58 65 73 81 82 83 83 85 90 92 89 80 78 80 80 75 73 70 70 75 73 68 68 71 75 82 84 76 61 56 59 62 57 52 48 44 42 38 32 18 12 9 8 7 7 8 10 10
31 33 36 40 40 42 47 58 66 71 78 86 88 86 82 83 80 83 81 71 67 65 67 71 72 74 74 72 75 76 82 88 82 68 60 59 60 57 53 50 46 41 41 36 24 15 11 9 8 7 8 8 10 9
34 38 47 55 61 68 66 72 82 92 91 92 94 93 86 81 72 62 58 57 61 64 68 75 77 78 74 75 78 81 86 79 69 64 60 58 54 52 49 47 43 41 37 31 18 13 10 8 8 8 8 9 10 9
37 43 52 62 70 75 72 78 82 84 89 85 78 71 57 45 40 45 52 56 58 65 75 83 82 78 82 85 81 82 80 69 65 62 56 51 50 49 47 45 40 39 35 22 15 11 9 8 8 7 8 9 10 8
44 45 46 50 53 47 53 56 58 57 50 41 36 33 33 37 48 52 53 64 78 85 86 82 82 86 84 78 74 74 68 63 64 58 54 51 51 48 45 41 39 36 27 17 13 10 8 8 8 7 8 9 9 8
35 37 37 37 37 36 34 34 36 35 34 33 33 35 42 50 62 73 77 82 83 83 83 82 81 80 75 72 74 69 64 60 57 56 53 50 48 44 41 40 38 32 19 14 11 9 8 8 8 8 8 9 9 8

GFSWCAN_250_rhum_282.txt.gz
RH
100 100 100 90 100 100 100 98 98 100 100 98 73 82 88 83 84 79 82 97 100 89 64 100 84 96 99 100 93 89 98 100 100 100 95 100 99 98 100 100 100 98 95 98 100 100 100 100 99 95 85 73 68 56
100 100 100 100 100 100 100 100 100 100 100 75 72 56 50 30 32 24 22 42 57 76 67 90 73 94 100 99 100 99 91 95 100 100 97 94 96 95 100 100 100 100 100 90 87 100 100 100 99 94 83 63 58 59
100 88 68 68 57 63 65 50 53 55 44 42 39 36 20 23 29 36 38 45 55 52 96 60 68 92 90 98 100 94 92 100 100 97 100 98 99 97 97 98 100 100 95 82 90 99 100 96 86 86 72 61 58 68
51 48 29 40 36 35 25 24 22 16 14 14 23 25 36 42 48 47 49 49 49 54 64 59 68 64 69 79 84 69 64 66 76 77 74 74 70 76 71 66 67 73 78 74 80 80 86 88 80 65 66 64 70 69
17 20 19 20 18 14 14 13 12 13 23 29 28 28 28 30 31 30 29 31 31 29 29 28 27 29 30 40 50 46 40 38 41 50 58 58 56 54 53 53 59 64 67 70 69 73 75 79 78 97 74 65 68 78
14 14 13 12 12 12 12 13 18 22 28 24 17 14 10 7 6 5 5 7 8 7 7 7 8 8 8 9 9 10 10 10 12 14 23 30 36 42 46 56 79 67 69 80 78 76 86 100 93 83 64 73 80 80
12 12 11 11 12 13 15 21 24 20 14 8 7 6 6 6 7 8 8 8 8 8 7 7 7 8 8 8 9 10 11 11 10 11 12 14 20 30 44 74 72 68 82 92 100 100 100 100 92 71 74 82 80 88
10 10 13 17 21 21 17 13 9 7 7 9 8 8 8 8 7 6 5 5 6 6 6 6 7 7 8 9 8 8 9 10 11 10 10 12 19 32 54 81 70 79 100 100 100 100 100 89 84 76 94 82 85 95
17 20 23 21 17 11 7 7 8 8 8 8 7 6 5 5 4 5 6 6 7 7 8 9 9 9 12 10 9 9 9 10 9 10 13 19 32 48 67 71 98 100 100 100 100 100 92 88 80 92 83 87 98 73
20 16 16 12 7 7 8 8 8 6 6 5 5 5 5 5 5 6 6 7 8 9 9 10 11 11 10 9 9 8 9 9 11 14 16 30 59 75 100 100 100 100 100 100 100 100 100 85 84 87 86 93 75 61
15 12 9 8 9 8 8 6 5 5 5 5 5 5 5 5 6 7 9 9 9 9 10 9 9 9 9 10 10 10 11 12 13 15 26 68 100 100 100 100 100 100 100 100 93 88 79 86 93 90 97 80 74 63
9 10 10 10 8 7 6 6 5 5 4 4 4 5 5 6 8 9 9 9 10 10 9 10 10 10 10 11 12 12 13 15 21 30 65 100 100 100 100 100 100 100 96 91 83 84 93 92 96 97 81 77 74 54
12 12 10 8 6 6 5 5 4 5 5 5 6 6 7 8 8 8 10 10 9 9 9 10 10 12 14 14 17 18 20 28 52 82 97 100 100 100 100 100 100 92 84 80 88 84 100 100 98 84 85 82 62 46
11 10 7 6 6 5 4 4 4 5 5 6 7 8 9 8 8 9 8 9 9 10 11 13 17 19 21 25 25 29 38 62 100 99 100 100 100 100 100 98 90 79 83 85 88 100 100 100 89 91 86 67 49 39
9 7 7 5 5 4 4 4 5 6 6 8 8 8 8 8 8 9 9 10 13 15 17 19 22 25 27 32 44 57 74 69 80 100 100 100 100 98 92 78 72 81 80 99 100 100 99 91 93 83 66 49 39 39
7 6 5 4 4 4 5 6 7 8 9 8 7 8 8 9 9 10 13 16 17 20 24 26 29 33 34 39 37 40 50 61 73 82 80 81 82 82 77 77 82 93 98 99 100 98 90 91 82 69 48 38 41 35
6 5 4 4 5 6 7 7 8 9 7 8 8 9 10 13 14 17 19 21 24 26 28 31 35 38 45 49 50 56 65 75 79 82 82 82 80 89 96 97 98 100 100 100 99 92 90 79 69 49 39 41 38 34
5 5 5 6 6 8 8 9 8 8 8 11 12 14 17 20 20 21 24 26 28 30 31 33 33 33 39 62 90 95 99 100 100 100 100 100 100 99 99 100 100 100 98 99 92 86 80 70 46 40 43 42 36 33
5 6 7 7 7 8 8 8 8 10 14 18 18 20 23 25 26 27 28 29 30 31 32 33 34 37 39 53 71 85 89 98 98 100 100 100 99 100 100 95 96 100 97 85 86 86 68 47 43 45 43 40 36 28
8 7 7 7 7 8 9 11 16 20 23 24 24 25 28 32 32 30 32 35 36 38 41 41 44 51 55 68 88 97 100 100 98 100 100 100 99 92 91 100 100 91 83 88 89 70 50 44 44 42 41 39 33 23
7 7 7 8 10 11 14 19 23 24 28 29 29 30 33 38 36 40 41 48 63 65 68 88 100 100 100 100 100 99 100 100 100 100 95 89 91 99 100 98 83 84 91 91 75 51 44 42 42 41 40 34 27 17
6 8 9 10 13 16 20 21 23 23 28 34 36 35 38 46 48 45 45 72 83 92 95 99 100 100 100 100 100 100 100 98 96 93 92 98 100 100 90 82 85 92 94 78 55 46 43 42 40 39 35 31 21 14
10 11 13 14 18 22 24 24 24 27 31 36 40 43 47 48 47 71 79 91 97 99 98 97 98 98 96 97 99 100 96 91 88 96 97 98 98 87 83 87 92 94 79 59 48 48 43 42 39 35 33 27 16 11
13 14 16 20 24 27 24 25 28 31 32 39 44 53 61 62 75 79 82 87 87 90 96 99 100 100 99 98 100 98 93 95 95 93 95 96 88 87 89 91 92 75 60 52 48 42 41 39 37 34 30 21 14 10
14 18 20 23 26 28 28 29 29 31 36 48 56 62 60 64 68 70 78 86 94 99 100 100 96 90 84 93 95 96 91 87 87 92 89 90 91 92 92 85 71 63 57 50 43 39 38 37 35 32 26 17 12 9
19 21 23 22 22 24 26 26 28 34 44 42 48 53 62 70 73 78 86 94 97 100 98 92 81 86 91 95 90 85 80 76 83 87 90 90 92 91 81 67 66 63 53 47 42 37 36 35 34 29 21 15 11 9
18 21 24 25 25 29 33 38 45 49 52 55 58 65 70 68 71 83 96 95 90 83 83 83 89 89 88 84 79 72 71 80 90 92 88 89 87 76 69 65 64 58 50 41 39 38 35 35 32 26 18 13 10 9
26 28 29 30 33 38 43 45 48 54 61 64 66 71 73 75 72 75 84 74 69 77 90 91 87 84 79 70 64 66 82 92 88 85 85 83 76 69 64 61 57 52 42 39 40 38 36 34 31 23 16 12 9 8
28 26 27 32 38 44 49 52 55 58 57 62 64 66 58 51 49 52 60 68 77 86 88 84 71 64 61 61 70 88 89 85 85 83 83 81 73 64 58 56 51 47 40 40 39 38 36 32 26 19 13 11 9 8
26 28 34 41 48 51 52 55 54 51 51 50 44 42 41 44 53 61 69 80 88 84 68 58 53 51 52 60 76 83 82 81 81 81 80 72 66 59 55 52 50 42 40 39 38 37 34 30 21 15 12 10 9 8
25 26 28 29 29 30 30 29 32 36 41 42 42 47 57 69 76 76 69 64 55 53 54 49 49 51 59 72 78 82 81 80 78 76 70 64 60 54 52 50 43 40 40 38 38 36 32 24 17 12 10 9 8 8
24 25 27 29 29 29 30 36 44 47 50 55 61 62 56 54 57 55 52 47 48 48 45 46 55 64 73 73 72 76 78 76 72 67 60 57 56 53 50 41 40 40 39 39 37 34 28 20 14 11 10 9 8 8
23 25 25 26 28 31 35 38 41 45 46 49 49 49 52 53 53 48 47 52 53 48 49 56 61 63 66 70 73 75 71 65 60 55 55 55 51 48 40 40 40 40 41 40 35 30 22 16 11 10 9 8 8 8

GFSWCAN_250_rhum_288.txt.gz
RH
100 100 100 100 84 88 78 68 77 74 68 76 67 32 12 12 12 10 11 11 11 12 13 13 13 12 12 12 12 14 19 27 29 33 32 40 37 39 39 50 60 60 63 89 95 90 81 83 82 87 94 100 100 100
98 91 88 70 53 49 50 49 44 36 42 33 14 10 10 10 10 10 11 11 11 11 11 11 12 20 23 26 26 27 30 32 31 27 24 19 19 20 24 20 21 22 28 37 51 71 77 69 74 73 64 63 79 100
65 58 62 54 48 34 32 22 18 15 12 9 9 10 10 10 10 10 10 11 11 11 11 22 25 29 27 22 19 15 15 15 13 11 10 11 10 12 13 12 13 13 15 18 24 26 38 58 56 51 50 53 64 74
67 70 55 35 22 16 13 11 9 8 8 8 9 9 9 9 10 10 11 16 20 16 14 19 18 13 10 10 10 10 10 11 12 13 12 11 12 12 13 12 15 16 13 14 14 15 17 22 28 31 38 54 60 65
34 22 14 13 11 10 9 8 8 8 8 9 9 9 9 12 18 23 21 18 14 12 9 8 10 13 11 11 11 10 10 10 11 10 11 11 12 10 10 11 13 11 11 12 14 16 17 20 22 23 29 42 63 73
12 11 9 9 8 8 8 8 8 8 9 9 11 20 21 21 17 13 12 9 8 7 9 10 11 9 8 7 7 7 7 8 8 9 9 9 9 8 10 13 10 8 11 13 15 18 22 22 23 23 28 51 93 83
10 8 8 8 8 8 8 8 8 9 12 20 22 23 20 14 11 8 8 10 11 10 8 7 7 6 7 7 7 7 7 8 8 10 11 11 11 11 12 10 11 14 13 14 17 19 18 18 25 35 68 93 84 90
9 8 8 8 8 8 8 10 18 23 26 24 21 16 13 9 8 10 11 10 8 7 6 6 6 6 6 7 7 8 9 10 11 11 12 12 11 12 14 14 13 12 14 16 16 18 19 33 52 97 92 92 97 92
8 8 8 8 9 11 18 24 25 22 19 17 15 11 8 8 11 11 9 7 6 6 5 6 6 6 7 7 9 10 11 12 12 12 12 12 13 12 12 13 14 16 17 18 17 23 47 72 88 93 96 96 78 77
8 8 9 13 18 21 22 20 19 18 16 12 9 8 10 11 10 8 7 6 5 5 6 6 7 8 8 10 11 12 12 12 12 12 12 13 13 14 15 16 18 19 22 26 43 64 80 87 90 99 86 77 83 79
11 12 16 18 18 18 18 18 14 12 10 8 9 11 11 9 8 6 5 5 6 6 8 8 8 9 11 11 12 12 12 12 12 14 16 17 18 26 29 25 30 35 60 83 94 92 83 86 90 92 87 84 88 92
15 16 16 17 16 15 13 11 9 8 10 11 11 10 9 8 6 5 6 6 7 8 7 8 9 11 12 13 13 13 14 15 17 18 21 27 40 43 47 51 54 83 93 99 97 89 92 100 93 87 83 94 88 74
14 14 14 12 10 9 8 8 9 15 14 12 10 10 8 6 6 7 8 8 8 8 10 11 12 13 12 14 14 15 16 19 23 28 36 44 56 66 71 80 100 98 98 99 100 98 95 89 90 90 95 85 74 58
12 10 8 7 7 8 10 16 16 14 11 10 9 7 6 7 8 8 8 9 10 11 11 11 12 13 14 16 17 20 28 30 37 46 68 73 78 78 82 95 98 100 97 88 88 88 90 93 92 88 84 67 58 58
7 6 6 7 10 15 17 16 13 11 10 8 6 6 7 8 8 9 10 11 11 10 10 13 15 18 19 22 27 33 39 51 69 83 86 83 90 90 91 100 89 81 78 87 96 94 86 90 87 78 67 64 63 61
6 7 10 12 16 16 15 12 11 9 7 6 7 8 9 9 10 11 10 10 10 11 14 17 20 24 24 28 29 32 48 66 85 88 90 87 93 94 94 82 92 98 98 95 93 87 89 81 80 74 71 70 61 51
10 12 12 15 13 14 13 11 9 8 7 8 8 9 10 10 11 10 10 13 15 18 19 22 26 32 33 33 43 50 59 54 67 72 70 73 87 88 96 100 100 95 96 87 89 86 82 81 77 74 75 65 57 46
11 12 13 11 13 14 11 8 8 7 8 9 9 10 11 11 11 11 16 20 22 25 26 28 31 32 33 34 42 54 62 70 76 84 91 94 98 100 99 95 94 87 87 89 85 87 86 78 76 80 70 63 52 40
10 11 11 14 14 11 8 8 8 9 9 10 10 11 11 12 14 17 21 24 27 28 29 30 32 34 36 39 45 55 76 90 90 95 100 98 97 95 86 79 87 92 90 86 90 88 80 78 79 74 67 57 49 39
11 12 14 11 9 8 8 8 9 9 10 10 11 12 15 17 18 22 24 27 30 30 31 32 34 38 41 50 58 66 81 90 96 96 94 91 77 77 83 87 90 89 87 92 88 81 81 79 72 67 59 56 45 39
11 11 8 8 8 8 8 9 10 11 12 15 18 18 19 21 24 25 27 31 32 34 37 39 40 45 55 71 80 86 87 88 83 76 69 73 81 83 84 88 89 90 96 90 81 82 79 74 68 63 58 54 41 39
7 6 7 7 8 9 10 11 12 14 17 17 19 22 24 25 28 31 33 38 47 52 60 61 78 93 96 97 89 79 81 79 76 78 88 90 91 84 85 92 94 91 84 84 84 80 75 70 63 58 58 49 40 38
6 7 8 8 10 11 13 15 17 18 18 19 24 26 28 31 36 43 54 69 78 90 97 96 97 92 77 70 79 84 83 84 93 99 96 86 79 83 91 90 83 80 87 88 83 78 72 62 55 58 54 42 39 38
7 8 10 11 13 15 17 18 18 20 21 24 25 27 32 40 59 61 72 80 89 87 85 76 67 73 82 86 88 84 88 92 100 97 92 84 82 81 80 81 81 88 90 88 82 72 64 57 54 55 46 40 40 38
10 12 14 16 18 19 20 20 21 21 22 24 29 35 44 64 70 75 84 84 81 78 79 78 79 86 90 91 91 94 98 97 98 93 80 76 79 76 75 76 82 86 86 84 76 70 59 53 53 48 41 41 40 38
15 16 18 19 20 21 21 21 22 24 27 30 38 44 60 72 78 80 73 68 78 88 84 82 86 88 90 92 94 92 93 87 82 71 64 70 69 66 66 69 78 80 76 75 71 57 54 52 50 40 39 42 40 37
18 19 20 19 20 20 21 22 24 25 26 28 36 46 59 70 74 71 73 78 90 90 85 84 88 91 91 88 90 92 83 80 68 57 55 55 57 57 61 71 72 72 70 66 56 54 52 51 41 38 40 41 38 32
20 20 18 19 21 22 23 24 26 30 36 40 47 51 62 72 72 72 75 80 85 86 84 83 90 93 94 92 87 80 74 76 65 51 47 50 54 59 68 68 67 67 62 57 52 49 48 42 38 38 38 37 36 26
27 31 31 30 32 33 33 34 37 44 48 51 57 59 62 64 66 70 75 75 82 93 97 97 95 92 88 76 69 65 59 56 52 45 44 43 46 57 62 65 66 62 60 56 51 47 40 38 37 38 39 35 30 20
25 25 28 31 35 38 42 45 47 48 52 53 56 57 68 79 80 78 77 80 86 92 94 92 83 75 66 59 54 53 53 52 48 43 42 44 55 62 66 66 64 63 61 53 48 40 36 38 39 40 37 32 22 15
22 24 25 28 31 34 36 39 46 51 56 61 66 67 70 72 69 66 70 71 71 70 64 56 52 51 50 50 51 49 47 46 44 47 53 59 62 63 63 64 64 58 50 48 41 37 38 39 39 38 32 23 16 12
28 28 29 29 32 35 36 40 44 48 51 54 55 57 53 54 54 48 49 46 46 47 48 51 54 55 54 51 48 48 47 49 55 60 62 66 69 70 67 60 53 47 46 39 38 39 39 40 38 32 25 17 13 10
29 28 30 32 35 36 39 41 41 40 41 43 44 46 47 49 53 56 61 62 62 62 61 60 59 60 63 68 73 74 73 73 75 73 69 66 63 55 47 43 40 38 37 38 39 39 40 38 33 26 18 13 11 10

GFSWCAN_250_rhum_294.txt.gz
RH
73 83 89 93 96 91 93 100 96 78 43 43 27 18 14 11 11 10 10 9 8 7 8 8 8 8 7 10 15 23 22 21 20 21 21 20 14 12 11 12 12 11 11 12 14 14 14 16 16 16 17 18 18 20
78 70 65 61 78 94 85 69 61 52 40 18 13 11 10 10 10 9 9 8 7 7 8 9 13 14 17 20 21 21 18 17 12 10 11 11 12 13 14 14 14 12 14 14 15 13 11 12 14 15 16 18 19 20
46 54 67 67 66 53 35 29 24 17 12 11 10 9 9 9 8 8 8 8 7 7 9 20 21 21 20 19 17 14 10 8 10 11 10 11 11 11 11 11 11 11 11 11 10 12 11 12 14 14 15 16 17 18
68 69 61 46 28 19 16 14 12 11 10 9 9 9 8 8 8 8 8 8 8 10 18 24 21 20 15 11 8 8 10 12 11 11 9 8 7 7 8 8 9 8 10 10 12 12 13 12 12 13 14 16 17 19
28 23 19 18 15 12 11 10 10 9 9 9 8 8 8 8 8 9 9 11 15 18 18 18 13 10 8 8 10 11 10 9 7 6 5 6 6 8 8 8 8 9 10 12 12 12 12 14 15 17 16 18 20 23
14 13 13 12 10 9 9 9 9 9 9 9 8 8 9 9 9 12 16 18 18 16 15 9 7 8 11 11 10 8 6 5 6 6 6 7 8 9 8 8 10 11 11 12 14 15 17 19 19 17 19 24 29 32
12 11 10 10 9 8 9 9 10 9 8 8 9 9 10 13 16 18 21 20 16 11 7 8 11 10 10 8 7 6 6 6 6 7 8 9 9 11 11 12 12 13 13 15 16 18 19 20 19 24 32 40 44 50
9 9 9 9 10 10 10 10 9 9 9 9 11 15 18 21 22 19 17 14 9 7 10 12 10 10 8 7 7 7 7 7 8 9 10 11 12 13 14 14 14 15 16 17 17 19 22 27 35 34 36 50 75 80
9 9 10 11 11 11 10 12 14 15 16 17 21 23 23 21 17 14 11 8 9 13 13 11 10 8 7 7 8 8 8 10 11 12 12 14 15 15 16 16 17 18 18 20 23 32 38 45 46 66 79 84 82 78
11 11 11 11 10 10 13 16 19 21 21 23 23 22 19 17 14 10 9 11 13 12 12 10 8 8 8 8 9 10 12 13 14 14 15 16 18 20 22 25 28 33 38 53 56 60 71 80 86 87 81 83 90 92
11 11 10 11 12 14 15 19 22 20 19 19 19 17 16 16 11 9 13 14 13 13 11 8 9 9 9 10 12 13 14 14 15 17 19 20 26 33 43 48 59 65 72 86 86 82 84 87 82 86 93 96 92 85
11 12 12 13 14 15 16 19 19 18 18 18 17 15 15 12 10 15 16 14 14 12 9 9 9 11 11 13 13 15 15 17 21 24 29 38 48 62 76 82 79 86 92 95 91 86 85 89 91 95 92 88 86 85
13 13 14 14 15 15 15 16 16 16 15 15 14 15 11 11 16 18 16 14 12 9 9 10 11 12 13 13 14 17 19 24 29 33 47 55 71 88 90 79 91 94 92 84 80 87 90 88 94 91 87 87 86 87
11 11 12 12 13 14 14 14 14 14 13 12 13 10 13 18 20 18 15 12 10 9 10 11 12 13 14 15 18 22 27 32 38 58 58 77 84 96 85 79 83 90 85 92 89 87 90 90 91 91 87 87 87 85
8 9 9 10 10 11 11 12 12 12 12 10 10 15 22 21 17 15 11 10 10 10 11 11 13 14 15 19 24 30 32 40 52 65 75 80 99 89 78 80 83 88 91 87 87 86 84 88 94 88 86 87 87 81
5 6 7 8 9 9 10 10 10 9 9 14 20 25 20 16 14 11 10 10 10 10 11 13 16 17 20 26 31 34 39 52 57 64 65 69 75 73 78 86 92 89 89 91 89 83 83 92 86 85 88 89 85 75
5 6 6 7 7 8 8 8 9 12 17 24 26 18 16 15 10 10 10 10 10 12 15 18 20 22 27 32 36 43 56 68 74 82 89 92 95 99 94 90 91 94 93 86 82 83 89 83 82 90 91 85 77 70
5 5 5 5 6 8 12 15 16 20 26 23 17 17 15 10 10 10 9 10 13 19 22 22 24 26 31 36 43 51 66 79 94 99 100 100 98 98 100 100 96 88 85 82 81 84 79 82 92 91 84 78 76 66
7 7 8 9 12 18 18 16 20 21 19 18 18 14 10 10 11 11 12 16 21 24 24 26 28 30 35 40 48 60 72 80 92 100 100 100 100 100 98 94 92 91 83 70 68 76 80 86 89 83 76 73 72 64
8 9 10 14 17 14 13 14 16 18 19 18 14 11 11 11 13 14 18 21 23 26 28 30 31 34 37 41 47 58 74 92 98 100 100 100 98 98 98 91 77 69 68 65 65 74 85 84 75 72 68 67 64 60
8 8 10 10 10 12 15 17 19 20 17 13 12 12 13 15 16 21 24 26 29 31 32 35 39 42 44 47 55 65 80 88 89 97 100 100 98 90 82 72 68 63 54 53 59 68 69 69 66 63 63 64 64 58
9 10 10 11 13 15 18 19 17 14 12 12 12 14 16 19 23 24 27 32 35 38 45 54 62 75 86 91 90 83 82 88 90 88 96 96 89 87 80 72 59 47 43 44 49 54 56 59 59 57 61 63 66 56
8 9 10 12 14 15 15 14 12 12 13 14 16 18 21 24 26 28 35 41 48 63 78 91 95 96 96 90 90 90 88 91 93 90 87 85 86 81 70 59 52 44 42 44 47 48 48 51 54 59 62 67 60 48
6 7 8 9 10 10 10 12 12 14 17 18 20 22 26 31 34 39 51 58 71 87 89 88 87 89 87 88 89 79 78 86 89 87 82 81 79 66 57 50 43 43 45 48 51 50 50 52 59 68 68 60 46 35
6 6 7 8 9 11 12 14 16 18 19 21 25 30 36 40 48 61 68 75 86 88 94 98 100 100 97 93 84 78 80 79 77 77 77 74 68 54 47 46 48 50 51 50 51 53 55 64 68 66 55 44 34 32
8 8 9 11 13 15 16 17 18 20 24 29 33 36 41 52 68 78 82 92 95 100 100 100 100 98 100 99 99 95 87 80 78 76 70 63 54 48 49 53 54 52 51 56 62 68 69 66 58 47 43 35 31 32
13 14 15 15 16 17 18 20 23 26 29 32 36 39 51 64 72 76 86 95 97 96 96 95 96 99 98 96 89 81 78 78 73 64 60 58 58 57 59 56 56 68 74 75 73 69 63 54 44 38 33 30 32 35
14 14 15 17 18 20 22 25 26 29 33 39 48 58 68 76 77 75 81 84 87 90 94 94 91 88 86 81 76 74 69 61 60 61 60 61 64 60 61 74 79 82 83 76 68 56 46 39 35 30 29 32 34 35
19 19 20 22 24 26 28 28 31 35 41 48 57 64 66 71 79 83 81 81 84 84 87 86 79 72 69 69 66 63 61 58 57 62 67 67 71 81 82 82 80 77 70 61 51 43 36 32 32 32 33 34 35 34
28 28 32 34 36 38 39 41 49 62 68 70 68 70 77 80 73 68 68 70 68 64 65 66 64 62 57 50 49 56 64 68 72 80 85 85 86 82 80 76 71 65 57 46 40 37 35 34 34 33 34 36 32 28
27 33 35 38 41 43 48 50 51 54 56 57 55 54 56 56 56 57 59 62 62 58 52 43 41 48 61 71 74 80 85 86 87 90 90 85 77 62 51 45 41 39 37 35 35 35 35 33 33 36 35 30 27 24
30 33 35 36 36 33 36 38 37 38 37 38 39 39 39 40 41 36 39 40 42 50 64 75 79 81 85 87 86 84 83 84 80 72 65 58 48 39 32 30 30 31 32 32 32 30 30 33 36 34 30 27 26 20
27 27 28 28 28 28 30 29 29 29 30 30 32 34 37 42 50 59 68 75 81 84 85 84 83 84 85 83 82 84 85 84 82 77 68 58 48 38 31 28 28 28 28 27 29 32 35 35 34 31 29 27 20 15

GFSWCAN_250_rhum_297.txt.gz
RH
92 40 39 28 27 27 30 29 28 30 28 43 46 30 18 15 11 9 10 9 9 8 10 9 8 8 8 9 12 18 18 18 17 15 11 9 8 8 8 8 11 10 11 13 12 12 13 13 13 13 14 15 15 14
25 19 21 19 16 14 13 14 17 18 21 20 17 16 12 10 10 9 10 9 8 8 9 9 8 10 15 16 16 17 14 11 8 6 7 8 9 11 11 12 10 9 7 7 9 9 8 9 10 11 13 14 14 13
13 14 14 14 13 12 13 13 14 14 14 14 13 10 10 10 10 10 10 8 8 9 10 12 14 17 16 16 13 11 8 7 8 10 11 11 10 8 6 6 6 6 6 7 8 8 9 10 11 11 11 12 14 16
13 13 14 14 14 14 14 13 13 13 13 11 10 10 10 11 11 10 10 11 11 12 18 20 19 16 15 12 8 8 10 12 11 10 9 7 6 6 6 6 7 8 8 9 9 9 10 11 14 15 17 18 18 19
14 14 14 14 14 13 12 12 11 10 10 10 10 11 11 11 11 14 13 15 18 20 20 18 14 14 9 8 12 13 12 11 9 7 6 6 7 7 7 8 10 10 11 13 13 13 14 15 15 17 18 19 20 21
13 13 13 12 11 10 10 10 10 11 11 11 11 11 11 12 15 18 17 17 18 18 17 15 13 8 10 13 12 11 9 6 6 8 8 8 9 9 10 11 11 12 13 15 16 15 15 15 18 20 24 25 23 28
11 10 10 10 10 10 11 11 12 12 11 12 12 12 15 16 18 18 19 19 19 17 16 14 10 12 13 11 10 7 6 7 8 9 9 10 11 12 12 13 13 13 13 13 14 16 19 20 24 27 28 37 46 50
10 10 11 11 10 11 12 13 14 14 15 14 15 16 16 17 18 19 21 20 17 16 14 11 12 15 12 11 8 7 8 9 10 10 12 12 13 14 14 14 15 16 17 18 20 22 26 29 32 48 53 63 73 78
10 10 10 10 12 13 15 16 17 17 17 16 16 17 17 18 20 19 17 18 16 14 12 11 15 13 11 9 8 9 10 11 11 13 13 14 16 18 19 21 25 28 28 30 32 41 56 69 68 74 81 83 80 75
12 13 13 13 14 14 15 16 16 16 16 16 15 15 16 17 18 18 18 17 15 14 10 15 14 13 9 9 10 11 12 12 14 14 16 17 19 23 31 39 40 43 61 71 78 77 74 72 84 86 80 73 79 85
12 12 11 10 11 12 12 12 13 14 14 15 15 15 15 16 17 18 17 15 13 10 16 15 13 11 10 10 12 12 12 14 15 18 20 23 31 45 66 68 66 74 75 80 85 82 86 85 78 83 86 86 86 89
8 7 7 7 7 7 8 8 9 10 11 13 14 14 15 15 16 16 14 13 10 15 18 14 11 10 10 12 12 12 12 15 20 25 33 35 56 64 84 80 64 76 80 83 87 88 80 75 86 87 88 90 92 91
5 5 5 4 5 5 6 6 7 8 9 11 13 13 13 14 14 13 12 10 15 18 14 11 11 10 11 12 12 14 15 22 28 30 38 53 59 80 88 81 78 74 80 88 85 77 79 84 83 88 95 93 90 88
3 3 3 4 4 4 5 6 6 7 9 10 10 10 12 13 12 11 12 17 17 15 12 10 10 11 11 12 15 18 24 27 34 44 51 66 68 84 90 86 78 79 82 80 79 80 83 80 85 91 90 90 88 91
3 3 3 3 3 4 5 6 6 8 8 9 10 12 12 10 13 17 18 17 15 12 10 10 11 12 14 18 21 25 28 35 47 56 63 70 68 79 84 85 85 80 85 88 88 80 76 84 91 91 92 92 91 87
3 3 3 3 4 4 5 6 7 8 8 9 10 11 13 20 22 21 17 15 11 9 10 11 13 15 19 23 27 33 38 49 66 72 78 84 96 100 100 96 91 94 96 86 76 75 88 88 88 91 90 85 78 74
4 4 4 4 5 5 5 7 6 6 8 12 16 21 26 25 21 16 15 10 10 11 12 14 14 19 23 27 28 35 54 61 69 86 97 100 100 99 97 100 98 91 89 91 83 81 81 79 78 74 73 71 67 66
5 5 6 6 9 7 10 10 10 14 21 24 28 29 26 18 17 14 10 10 12 14 15 15 20 24 25 29 31 40 53 67 84 92 97 100 98 100 99 95 90 94 98 94 74 65 66 66 62 60 56 58 58 56
6 8 8 9 11 13 15 15 19 26 30 31 27 21 17 17 14 10 11 13 16 16 16 21 27 29 31 33 37 44 54 68 77 95 100 100 99 93 89 90 94 96 87 72 52 44 48 48 49 53 49 46 48 54
6 7 8 9 12 15 15 16 25 26 25 23 18 18 18 14 11 12 15 18 20 21 23 26 30 33 35 37 39 44 57 72 87 96 97 91 90 93 90 95 96 89 76 58 50 49 50 49 47 47 43 46 55 59
6 7 8 9 10 10 12 18 21 21 18 19 19 18 14 12 13 17 20 23 24 26 28 31 35 38 40 42 47 56 66 75 83 87 93 97 92 90 94 92 89 79 69 62 52 49 46 44 45 46 50 55 64 69
7 8 9 10 12 14 16 17 17 18 19 19 17 13 13 15 19 21 25 26 28 30 34 40 48 66 82 90 87 80 76 80 85 87 87 89 99 100 96 90 85 73 60 51 47 47 45 46 53 62 74 76 71 56
6 7 9 10 12 13 14 15 16 17 17 15 13 14 18 21 22 26 28 31 34 40 58 74 84 85 86 82 83 84 85 81 81 92 95 92 86 84 83 78 65 57 52 52 53 52 59 76 85 84 76 69 58 47
5 6 7 8 9 11 12 14 14 13 13 13 17 21 22 24 28 32 37 42 46 72 88 92 92 93 95 95 96 96 94 86 83 84 83 81 81 75 67 62 58 57 61 59 62 81 91 89 84 79 68 54 44 37
6 7 8 9 10 10 11 11 12 12 16 20 22 24 26 31 38 48 55 63 67 89 92 90 88 91 93 97 99 97 92 90 89 85 77 73 69 63 63 60 62 65 66 78 92 94 90 84 77 66 53 42 36 34
9 9 9 9 11 12 12 15 19 21 22 23 24 26 31 38 50 60 66 67 87 94 97 94 89 91 94 93 97 98 90 80 78 76 69 67 68 65 64 71 73 80 90 94 92 85 79 73 64 50 40 37 35 33
13 13 15 16 18 19 21 22 22 22 23 24 26 30 35 45 57 64 70 79 88 85 81 82 88 93 95 93 89 84 76 72 70 69 72 70 69 73 81 92 97 96 92 83 71 62 56 49 43 35 34 34 34 35
18 19 20 18 20 20 20 21 22 24 27 29 32 38 56 66 70 73 82 78 79 78 80 83 83 79 77 74 74 71 68 68 71 68 66 73 86 96 97 96 91 82 73 58 45 37 35 34 32 32 33 33 36 38
22 20 19 20 20 21 22 24 26 29 30 34 40 47 49 49 57 68 71 74 76 75 73 72 70 68 67 64 62 64 65 60 64 81 90 97 95 93 92 85 73 62 54 50 43 36 33 32 32 33 34 36 37 36
22 25 27 28 30 29 30 29 30 30 35 39 42 45 46 49 52 55 59 60 64 62 60 61 60 57 56 57 55 60 76 86 91 94 93 92 92 88 81 74 70 65 54 48 43 36 33 33 34 36 39 39 37 35
22 25 27 26 28 28 29 31 33 36 38 43 46 47 48 47 48 50 52 53 54 53 53 52 50 51 63 83 90 91 90 89 90 91 91 88 84 83 81 75 69 58 46 39 37 36 37 39 40 39 38 36 35 32
21 21 21 22 24 25 25 28 30 32 32 34 36 35 38 41 44 42 46 44 45 47 62 79 89 92 92 91 89 89 90 90 89 86 82 77 76 74 68 62 57 48 41 40 41 43 42 40 38 36 34 34 32 27
24 24 25 26 27 28 27 28 30 33 34 34 34 34 36 39 46 57 68 78 88 93 95 93 91 89 86 85 86 87 87 85 82 77 72 70 69 64 58 53 48 44 44 45 44 41 39 36 34 32 31 29 23 17

GFSWCAN_250_rhum_303.txt.gz
RH
100 100 93 56 18 17 16 15 15 14 13 12 11 12 12 13 13 13 14 14 14 13 16 15 16 17 18 20 20 19 19 20 18 17 16 15 13 8 9 10 11 9 8 7 7 7 8 8 8 8 8 8 8 9
92 100 97 39 17 16 16 14 14 13 11 12 13 13 14 13 13 13 15 15 15 17 18 17 16 18 20 20 21 19 19 18 17 18 16 15 9 10 11 8 6 6 7 8 8 8 8 8 8 9 10 10 11 11
88 80 29 18 18 16 15 12 12 12 13 11 12 13 15 15 16 16 17 19 20 20 21 19 20 18 21 21 20 21 19 18 17 16 16 13 10 12 8 7 7 8 8 8 10 11 10 11 12 12 13 13 14 15
32 21 19 18 16 13 12 12 12 12 11 12 13 14 14 15 16 16 16 17 18 18 22 20 18 20 20 20 20 20 19 17 17 18 16 12 13 9 8 8 9 9 9 11 12 13 14 14 15 16 17 18 19 20
19 18 17 15 12 12 13 12 11 11 12 14 14 13 13 12 12 12 13 14 14 15 19 18 16 18 20 18 19 20 19 17 18 18 15 14 10 9 9 10 11 12 13 14 15 16 17 18 20 22 23 25 26 27
17 16 14 12 12 12 11 12 14 14 14 12 10 10 8 7 7 7 8 8 9 11 14 16 14 16 18 19 20 20 19 17 18 17 15 12 10 11 12 14 15 16 16 17 18 19 21 21 24 26 27 24 30 40
14 13 12 12 12 12 14 16 15 12 11 9 9 7 6 5 4 4 4 6 7 8 10 12 12 15 17 18 18 18 16 18 18 16 14 12 13 14 15 17 18 18 20 20 22 28 31 34 42 53 61 66 68 70
12 12 12 12 13 16 17 15 12 9 8 8 6 5 4 4 4 3 3 4 5 6 8 9 11 13 15 15 15 15 17 17 16 16 12 14 14 16 18 19 20 23 28 30 39 55 66 77 84 83 83 79 77 79
12 12 11 13 16 17 15 12 9 7 6 4 4 4 4 4 4 4 3 4 4 6 7 8 10 11 12 12 14 16 16 17 16 13 14 16 17 20 22 29 34 42 51 62 80 88 94 92 90 86 84 82 80 83
11 11 13 14 14 11 9 7 5 4 4 4 5 5 4 4 4 4 4 5 5 6 7 8 10 11 12 15 16 15 19 17 13 14 16 18 20 26 37 43 53 68 90 97 96 92 93 90 84 81 84 86 84 79
11 14 12 10 8 6 5 4 4 4 4 7 6 6 5 5 4 4 5 6 7 8 10 11 12 13 15 16 16 20 16 14 15 17 18 21 27 43 57 70 78 95 98 100 90 89 89 89 89 89 84 78 73 69
12 9 7 5 4 5 5 5 5 7 9 11 8 7 6 5 5 6 7 8 10 11 12 13 14 15 15 21 20 15 14 15 18 20 24 31 41 60 74 87 95 95 95 90 87 92 93 92 85 75 69 66 60 55
8 6 4 4 4 5 6 7 8 10 12 11 10 8 6 5 6 8 10 11 12 12 14 15 15 21 24 20 15 14 16 20 21 24 30 40 56 67 79 88 97 98 98 95 94 95 85 84 78 64 56 54 53 48
4 4 4 5 5 6 6 7 9 11 12 13 11 8 6 7 10 11 11 12 13 13 14 22 26 22 19 15 15 16 19 22 27 32 39 49 62 74 87 95 85 97 100 96 96 87 87 85 76 59 48 46 47 46
4 4 5 5 6 6 7 8 9 10 13 14 10 9 9 10 9 10 11 12 16 22 25 22 19 17 15 14 16 19 24 28 33 40 57 60 74 98 90 81 92 98 94 96 95 98 94 85 76 65 62 56 53 51
4 5 5 5 5 6 6 7 9 11 14 13 12 12 12 12 13 17 22 25 25 21 20 18 14 13 15 17 19 24 28 32 42 53 63 69 81 93 94 98 94 93 92 88 100 99 93 84 75 63 59 56 55 60
5 5 5 6 6 6 7 8 10 12 13 14 17 17 18 20 25 27 26 22 19 19 16 13 13 16 18 21 23 27 31 36 46 63 73 81 93 98 94 88 94 89 85 96 98 93 91 79 67 61 60 61 71 82
5 5 5 5 6 7 8 9 11 12 14 20 23 24 28 31 28 24 20 20 19 14 13 15 18 19 22 25 27 30 34 41 49 58 64 82 90 85 87 93 88 88 96 97 95 94 88 74 65 68 69 76 82 84
5 5 5 5 6 8 10 11 12 13 18 25 27 28 32 28 22 20 20 17 14 15 17 20 22 25 29 31 33 34 36 42 47 51 61 71 78 84 87 84 85 94 97 95 94 87 74 66 69 80 87 90 88 84
6 5 5 5 7 10 11 12 12 14 19 23 24 28 25 22 22 21 15 15 17 21 24 25 28 30 30 32 34 36 43 49 55 67 74 83 86 84 80 86 95 96 93 93 91 76 69 78 88 92 94 90 82 68
6 6 5 6 7 10 11 12 13 15 17 22 22 23 22 22 21 15 16 20 23 26 28 30 33 34 34 35 38 43 48 54 66 78 84 85 81 84 92 96 97 92 91 88 73 75 87 93 97 99 96 87 73 65
7 6 6 6 7 9 11 12 14 15 18 20 21 22 22 19 16 18 21 24 28 31 33 34 35 38 42 43 57 71 77 75 73 75 78 81 84 90 98 95 89 88 85 78 76 85 96 100 100 98 95 86 69 56
9 8 7 7 8 9 12 14 15 17 18 18 19 20 18 16 19 22 25 29 34 36 38 42 46 50 63 76 78 75 75 79 83 83 85 91 91 88 86 85 84 85 80 75 86 96 99 100 98 96 94 84 73 53
10 9 9 8 8 10 10 13 14 15 16 17 17 16 18 22 25 27 32 36 40 44 51 59 76 87 89 85 82 82 85 88 88 88 87 85 88 84 80 80 80 76 76 87 94 98 98 98 97 96 87 81 75 60
12 11 11 11 11 11 12 14 14 14 16 17 19 22 24 26 28 33 37 42 43 52 60 80 89 93 92 86 84 85 85 85 86 87 86 85 78 78 80 78 75 83 91 93 96 98 98 98 97 91 82 77 70 57
14 13 14 14 14 15 16 17 18 19 20 22 23 26 29 31 33 36 42 46 59 61 60 72 94 94 89 86 83 81 81 81 81 83 77 75 76 78 78 84 90 91 94 97 98 97 97 97 92 85 82 73 62 58
16 16 15 15 15 16 18 19 21 21 22 24 27 29 32 34 38 43 48 57 70 74 74 74 79 84 85 83 80 77 72 70 69 70 69 71 76 84 94 93 91 94 98 97 95 94 95 89 83 84 83 72 66 62
16 16 18 21 22 24 23 22 23 24 27 28 30 31 34 39 45 52 56 63 64 65 69 70 69 69 70 70 70 69 68 66 65 67 71 78 86 89 91 94 97 98 96 94 94 93 88 81 80 82 79 71 64 56
19 19 20 24 27 29 31 30 28 30 33 33 35 39 44 46 50 54 56 55 55 56 60 64 65 66 65 63 62 62 62 64 70 82 88 88 90 92 95 95 93 89 86 85 85 83 77 74 77 79 71 57 50 48
21 22 22 23 23 24 27 27 29 27 28 29 33 35 41 46 47 46 46 49 51 52 52 51 50 51 54 57 60 64 69 75 83 90 94 97 97 95 95 90 85 84 83 79 74 72 74 77 73 64 54 51 49 46
22 22 23 24 23 25 25 24 24 25 25 27 27 30 33 36 37 38 40 42 43 44 46 49 49 51 53 57 64 73 82 87 91 92 93 93 93 89 83 79 76 71 67 68 71 71 69 63 56 53 52 47 39 30
39 32 29 28 29 28 28 30 31 33 32 34 37 36 36 38 41 42 46 49 52 55 57 59 62 64 69 74 81 87 90 88 86 85 83 79 74 73 71 69 68 70 71 72 68 62 54 51 49 43 34 26 20 15
70 71 68 62 54 49 46 43 39 39 40 41 43 43 44 48 52 56 62 67 70 74 78 82 85 86 84 80 75 72 70 68 66 64 63 64 67 70 71 71 70 67 60 52 47 46 45 39 30 23 18 14 11 11

GFSWCAN_250_rhum_306.txt.gz
RH
98 100 100 100 100 100 100 96 28 19 18 16 14 14 14 14 13 13 15 20 19 18 21 19 18 17 19 20 22 22 22 21 22 23 21 20 19 18 17 14 14 12 12 9 7 8 8 8 8 10 10 10 10 10
100 99 94 100 100 91 36 22 18 17 15 14 14 14 13 12 11 13 16 15 15 16 15 14 12 12 13 16 18 19 18 19 20 22 22 20 20 17 16 14 13 12 10 10 10 10 9 10 11 11 11 12 11 12
96 98 100 98 54 25 21 18 16 14 14 14 13 12 11 13 13 14 14 12 11 10 10 9 7 8 8 10 12 15 14 17 16 17 19 20 20 18 16 14 13 12 10 10 10 10 12 13 13 14 15 16 16 17
81 76 56 26 22 20 18 16 14 14 14 13 12 11 12 13 13 11 11 10 8 7 6 5 4 4 5 7 9 10 13 14 16 17 18 20 20 18 16 16 14 11 11 12 13 14 14 14 15 16 18 19 20 22
50 31 22 22 19 17 15 14 14 13 13 12 12 12 11 11 10 10 8 6 5 4 4 4 3 4 4 5 6 9 11 13 15 17 18 20 19 18 16 16 12 12 14 15 16 17 18 20 21 23 28 31 31 29
23 21 20 18 16 15 14 14 13 12 13 14 13 11 9 9 8 7 6 5 5 5 4 4 4 4 4 5 7 9 11 13 15 16 18 18 18 17 18 12 13 15 17 19 23 26 31 32 31 30 35 47 58 64
20 19 17 16 15 14 13 12 12 12 14 13 10 9 8 6 6 7 6 6 5 5 4 4 4 4 4 5 6 8 10 12 14 16 17 17 17 18 13 15 18 21 24 27 32 36 47 53 61 78 77 72 67 68
18 17 15 14 14 12 11 10 11 12 11 10 8 6 6 6 8 9 8 6 5 4 4 4 5 6 6 7 8 10 12 14 14 16 18 20 18 15 16 21 26 33 38 45 58 64 65 74 78 79 78 78 78 79
17 15 14 14 12 11 11 11 11 9 9 6 5 6 8 11 11 9 8 6 5 5 5 6 7 8 8 10 11 13 14 17 18 19 21 18 16 18 23 32 47 51 58 69 75 76 80 84 81 77 78 77 74 71
15 14 13 11 10 9 10 9 8 6 6 5 7 9 10 11 10 9 7 6 6 6 7 8 9 10 12 14 16 17 19 18 20 21 16 16 19 25 36 56 69 72 95 92 88 93 87 84 83 83 80 79 79 82
15 12 11 10 9 9 8 6 5 6 6 8 8 8 9 9 9 9 8 7 7 8 9 10 12 13 15 16 17 19 20 23 19 16 16 19 26 40 64 76 77 98 98 95 97 91 87 94 94 85 87 85 68 52
12 11 8 7 9 8 5 5 6 6 7 7 7 8 8 9 10 10 7 7 9 11 11 13 14 15 17 18 24 27 23 17 15 17 20 25 40 53 73 86 90 98 96 99 91 96 100 98 98 91 78 61 50 49
10 8 8 8 6 5 6 6 6 6 6 7 7 7 8 11 11 8 7 8 11 12 12 13 14 19 28 29 24 20 16 15 16 21 27 40 55 65 83 100 100 90 88 86 95 99 100 99 98 88 70 60 55 48
10 10 7 5 5 6 6 6 6 6 6 7 7 8 10 11 10 10 10 11 12 14 18 26 29 28 23 21 18 15 16 18 22 26 35 50 60 70 80 100 98 90 88 92 98 99 99 99 97 87 77 67 60 53
8 7 5 5 6 5 5 6 6 6 7 7 8 10 11 12 13 14 15 18 23 29 31 25 20 20 17 14 15 16 19 22 26 34 48 60 76 86 90 100 98 94 95 100 96 99 99 99 96 91 75 62 56 62
7 5 6 6 5 5 5 6 6 7 8 8 10 10 13 17 18 20 23 29 29 23 19 18 17 15 14 15 17 19 23 26 33 45 53 65 73 83 91 98 91 92 96 95 93 99 98 97 94 83 64 62 75 82
6 6 6 6 6 5 5 6 7 7 8 10 11 13 18 20 23 27 30 24 18 19 19 15 13 14 15 18 21 23 26 32 37 45 54 68 78 82 90 88 87 93 93 94 98 97 96 89 81 69 63 79 86 93
6 7 6 6 6 5 5 6 7 8 10 11 13 18 21 22 26 26 22 19 20 17 13 13 15 19 20 22 24 27 30 35 37 42 51 60 70 75 79 80 94 89 94 98 98 97 95 87 73 65 78 91 93 89
8 7 7 7 6 6 6 7 9 12 12 13 17 21 23 26 24 22 20 21 16 14 15 18 21 22 24 26 28 32 37 39 44 47 50 57 63 71 84 92 91 92 97 96 95 98 92 72 69 77 90 94 92 88
8 8 9 9 7 7 7 9 11 13 15 19 21 24 24 25 23 23 23 17 16 18 21 23 25 27 30 33 35 39 41 46 51 59 71 82 91 95 96 92 94 95 94 94 97 91 80 74 75 88 93 92 89 88
9 9 10 10 8 8 9 11 13 16 19 22 21 23 24 24 23 23 17 17 20 22 24 27 31 35 36 38 39 40 44 48 52 61 74 81 87 90 95 96 95 94 95 95 92 85 75 74 84 90 91 90 89 89
11 10 11 10 10 9 10 12 14 17 19 20 22 24 22 22 22 18 18 22 24 27 30 34 39 42 46 51 56 64 72 79 80 79 80 81 84 89 90 93 96 96 93 90 83 74 71 82 87 88 91 90 87 90
12 12 13 12 11 11 11 12 13 15 18 19 20 19 18 18 18 20 23 25 28 30 34 41 52 66 81 86 88 84 81 80 82 84 85 87 91 95 95 95 91 87 87 80 71 71 80 88 87 88 92 93 92 92
15 14 14 14 13 13 12 13 13 14 14 14 15 16 18 20 23 24 25 29 36 39 48 62 85 99 97 98 100 94 88 86 86 88 90 94 95 92 88 84 83 82 73 69 76 80 84 87 88 91 92 93 94 92
18 15 14 15 15 15 15 16 16 17 18 18 19 20 23 25 26 28 33 42 51 61 70 75 96 98 100 100 98 94 92 91 88 88 89 90 90 87 83 79 70 67 70 79 81 83 84 86 90 91 91 93 95 87
20 17 18 18 20 19 19 18 18 18 19 21 23 25 26 27 29 37 46 57 67 81 89 85 80 80 93 98 100 98 93 89 87 90 87 83 78 71 64 59 59 68 76 82 86 88 89 91 90 87 88 90 83 78
23 17 17 17 19 22 24 24 23 22 22 23 24 25 26 28 32 42 48 60 66 68 71 76 82 86 90 90 88 86 84 81 76 69 61 57 54 54 59 71 81 86 91 93 92 92 92 89 85 86 83 77 73 72
29 21 18 20 22 24 25 27 27 27 29 30 30 32 34 37 40 48 52 56 61 66 70 73 72 72 75 74 69 63 57 51 48 47 50 57 64 72 80 83 86 88 86 85 86 87 85 81 77 74 72 71 69 64
37 28 20 20 22 24 24 26 27 26 27 30 34 39 42 46 50 52 53 53 52 52 53 53 51 51 50 49 49 48 48 49 52 55 61 68 74 78 82 82 82 80 80 79 75 74 74 73 74 73 68 64 55 46
45 41 31 25 22 23 23 24 24 25 25 25 27 31 34 35 37 40 40 40 38 38 39 40 41 41 41 42 46 50 55 61 66 70 73 77 81 78 75 73 72 69 68 70 72 72 73 72 64 57 51 46 41 37
52 53 52 48 42 32 25 23 23 22 22 22 23 26 28 28 30 33 33 34 34 35 38 42 48 53 60 69 78 83 81 75 74 74 74 75 72 69 68 68 68 70 69 70 71 69 60 52 49 45 39 34 27 21
64 66 65 66 66 68 66 64 61 56 51 44 40 38 37 36 37 40 44 48 51 54 62 70 74 75 76 78 76 73 72 71 70 71 69 63 63 66 68 71 71 67 64 62 54 47 44 41 33 28 24 20 16 13
64 67 75 77 77 75 73 71 74 75 75 77 77 76 75 74 74 74 73 72 72 72 72 70 68 67 67 64 60 57 55 55 58 60 62 65 69 70 66 62 58 53 46 41 37 34 28 23 20 17 14 12 11 11

GFSWCAN_250_rhum_309.txt.gz
RH
100 88 100 100 100 100 48 42 28 22 22 20 20 18 16 15 15 14 12 12 12 13 18 16 12 10 10 8 8 7 6 6 7 8 11 12 14 15 17 19 20 20 20 20 18 14 13 10 10 10 10 10 10 11
95 100 100 100 100 39 25 23 20 20 20 19 17 15 15 15 14 12 12 13 14 15 14 11 8 7 6 6 6 6 5 5 5 6 6 8 11 13 16 17 19 20 19 20 16 14 11 12 11 11 12 13 14 14
96 97 100 100 54 22 19 19 19 20 18 17 16 15 14 14 12 12 13 14 14 12 10 6 6 6 6 7 6 5 4 5 5 6 6 7 10 14 16 18 18 19 20 18 16 12 12 11 12 13 14 16 17 18
100 100 98 60 21 18 19 18 18 17 16 15 14 14 13 13 13 14 14 12 9 7 7 6 6 9 9 6 5 4 5 5 5 6 6 8 10 13 16 19 19 19 18 18 14 14 14 15 15 17 18 20 24 27
100 99 74 21 18 18 18 17 16 15 14 12 12 13 12 13 15 13 10 7 7 8 9 9 10 11 6 5 4 5 5 6 6 7 9 11 13 15 17 19 20 20 19 16 16 16 18 21 24 29 31 30 34 45
99 27 20 18 18 18 17 16 15 13 10 10 10 11 13 13 10 8 7 8 8 10 10 12 11 7 5 5 6 6 6 6 7 9 11 13 15 18 20 20 22 20 18 18 20 26 31 34 36 49 60 67 63 62
24 19 18 18 17 17 15 14 11 10 10 9 10 12 10 7 7 8 8 9 9 10 12 11 8 6 6 7 8 8 8 9 10 12 13 16 18 21 23 24 20 21 23 27 36 46 51 62 59 70 61 64 68 71
18 18 18 17 16 15 14 10 10 9 9 10 9 6 6 7 7 8 8 9 9 10 11 10 7 7 8 9 10 10 11 12 13 15 17 20 24 25 23 20 25 31 39 50 65 76 80 76 72 72 75 80 78 73
18 17 17 16 16 12 9 9 9 9 9 6 5 7 7 7 7 8 8 9 9 11 10 8 8 9 11 12 13 15 16 16 19 21 23 27 24 21 22 30 41 62 74 80 91 94 80 83 89 84 80 75 70 63
17 17 17 16 12 9 8 8 8 8 5 6 7 7 7 7 7 8 8 9 10 10 8 8 10 12 12 14 16 17 18 20 21 28 26 22 22 26 35 55 78 96 99 98 95 80 90 94 94 90 89 94 82 60
17 16 16 11 9 8 9 8 6 5 6 7 6 7 7 7 8 8 8 10 10 8 8 10 12 14 16 17 18 20 26 30 29 22 20 22 26 39 56 80 98 98 98 96 88 89 95 94 98 97 99 93 78 60
16 15 11 10 9 10 9 6 6 7 6 6 6 6 7 8 8 8 10 11 9 9 10 12 13 15 18 24 31 31 26 23 20 20 22 26 38 52 66 98 100 93 80 88 90 90 97 99 98 93 91 82 69 55
16 12 9 8 10 9 6 6 7 6 6 6 6 7 7 8 9 11 11 11 11 12 16 20 27 31 32 29 24 22 21 18 19 22 24 31 44 61 71 86 100 98 91 97 94 94 99 98 97 97 96 91 81 66
13 11 9 10 9 6 6 6 6 5 5 5 7 8 9 9 11 13 14 15 18 21 24 25 24 22 22 22 19 17 16 18 22 24 28 38 57 69 82 99 100 100 100 98 96 100 98 97 97 98 97 94 87 70
12 10 11 11 8 6 7 6 6 5 5 7 8 9 10 12 14 15 17 20 22 23 21 19 20 21 19 17 16 16 18 20 24 27 36 48 68 93 100 100 100 100 100 100 98 99 98 99 99 99 96 90 74 73
12 12 12 10 7 7 7 6 6 6 8 8 10 12 12 15 17 19 20 20 19 18 18 18 16 14 14 16 17 18 20 24 26 34 43 53 67 77 87 91 99 99 99 98 99 98 100 100 99 97 93 80 73 84
18 16 12 9 8 8 7 7 7 7 8 11 13 13 15 16 18 20 20 19 17 18 16 13 14 14 17 19 22 22 24 28 33 37 47 58 74 85 92 92 96 97 94 100 97 96 95 98 96 96 88 75 75 88
18 15 12 10 9 8 8 8 8 8 10 13 14 16 18 18 21 21 18 17 18 15 13 14 18 20 21 23 24 25 28 33 38 44 49 53 67 80 84 86 88 94 99 97 96 95 97 98 97 92 80 70 79 92
18 14 12 11 10 9 10 10 9 11 12 14 16 18 20 20 21 20 19 19 16 14 18 22 23 24 25 27 30 31 34 40 47 56 59 62 69 76 77 85 98 100 98 96 97 97 94 93 90 80 71 73 87 91
18 14 12 12 12 10 11 11 10 11 12 14 17 20 22 22 22 21 20 17 16 20 25 26 26 27 29 32 34 36 38 41 49 57 67 76 80 90 96 99 99 96 92 94 93 94 94 91 82 74 73 86 94 91
18 15 14 13 13 12 11 12 12 12 12 14 15 17 20 22 20 18 17 17 22 25 27 26 28 30 35 42 47 50 52 56 59 64 71 76 84 90 94 90 92 95 96 95 96 96 91 84 74 72 83 93 95 95
18 16 15 14 15 13 12 13 13 13 13 14 15 16 17 18 17 16 20 23 26 27 28 29 33 44 55 67 77 81 81 81 81 80 80 82 85 88 90 93 97 99 96 94 93 87 80 71 74 85 91 96 98 95
18 17 17 17 18 14 13 13 14 14 15 16 16 16 17 17 19 22 24 27 30 34 34 40 51 66 83 90 94 91 90 91 93 94 96 97 97 98 98 99 97 97 93 84 76 72 69 74 84 94 99 98 96 90
20 19 19 21 20 17 15 15 16 16 17 18 18 19 20 21 24 27 30 34 37 42 46 55 71 82 83 92 99 98 97 96 97 96 97 97 96 96 95 91 83 78 72 65 63 64 76 88 93 96 95 93 85 79
20 20 22 26 25 20 18 17 18 18 18 19 20 21 22 24 26 28 31 36 40 45 58 66 72 81 89 92 93 95 96 96 97 97 92 90 88 84 79 71 64 60 58 62 74 86 92 91 90 88 87 81 75 72
21 21 24 29 30 24 20 20 22 21 22 22 23 25 24 25 26 26 28 32 36 45 61 76 84 88 88 89 97 96 90 83 82 82 78 74 70 66 60 53 53 63 74 83 88 91 91 90 88 83 76 71 69 68
22 24 26 31 36 29 22 20 21 22 23 25 25 25 26 29 32 32 37 44 53 61 68 72 75 78 81 83 77 71 68 68 66 60 57 54 52 54 58 61 67 74 80 84 87 86 84 80 74 69 69 68 67 63
24 26 32 36 40 36 28 24 22 22 24 24 25 23 24 26 30 30 37 44 51 56 59 62 59 54 53 52 50 48 45 46 46 50 54 57 60 64 70 74 78 82 79 73 68 64 63 63 64 66 67 64 56 52
26 29 35 41 44 45 41 34 30 27 24 24 25 26 25 27 26 28 31 36 38 40 39 38 37 41 41 42 43 46 50 56 65 76 82 84 86 85 84 82 78 71 67 65 65 65 66 67 65 62 57 54 49 40
28 30 37 43 47 52 57 60 56 52 42 31 29 28 27 28 30 32 34 35 35 35 37 40 42 44 46 50 57 67 80 88 89 87 85 81 76 70 67 64 62 61 62 64 66 66 66 63 57 52 49 41 33 26
29 35 43 50 53 53 53 56 62 69 72 73 75 76 75 76 74 75 74 73 73 72 74 78 83 86 87 89 89 87 83 75 71 66 61 58 58 58 56 56 59 64 66 67 66 64 59 52 45 40 31 23 18 14
32 39 48 59 66 71 72 71 70 72 76 76 76 79 81 84 85 88 86 86 87 87 85 82 78 76 73 70 67 64 61 58 55 53 54 57 58 58 61 64 65 63 60 57 49 42 37 30 22 17 15 12 11 10
32 38 47 60 71 78 84 84 83 82 84 88 89 90 90 88 88 89 86 83 82 82 80 78 75 72 67 64 62 59 58 58 59 60 61 64 67 67 64 60 53 46 37 30 24 20 16 14 12 11 10 9 9 9

GFSWCAN_250_rhum_315.txt.gz
RH
86 96 82 51 73 80 89 78 79 60 24 20 16 15 14 15 14 11 10 10 11 11 11 9 8 7 7 7 7 8 9 10 10 10 12 12 13 13 13 13 12 11 11 11 11 11 11 13 12 16 18 19 19 19
94 69 68 74 81 100 77 54 65 29 20 17 15 13 13 12 10 8 10 10 9 8 7 6 8 8 7 7 9 9 9 9 9 10 11 12 11 9 8 9 8 9 9 10 12 13 14 16 21 23 24 24 22 20
80 78 100 93 100 81 50 43 34 19 19 16 13 12 10 9 9 9 8 7 7 7 7 7 7 7 8 8 8 8 9 9 10 10 8 7 6 7 8 8 8 9 11 12 15 19 24 28 30 30 26 22 17 17
92 100 97 100 82 61 40 26 20 20 16 13 12 10 8 8 8 7 6 6 6 6 6 6 7 7 7 7 8 8 10 9 6 6 7 8 8 9 9 9 10 13 18 22 25 30 32 31 29 26 23 23 26 27
100 92 99 85 70 28 21 20 20 17 15 13 10 8 8 7 6 6 6 6 6 6 6 6 7 7 7 8 9 9 7 6 7 8 9 10 10 10 12 15 17 21 26 29 34 33 33 34 34 35 35 40 44 48
98 90 100 68 61 22 20 20 17 15 14 11 9 8 7 5 6 6 5 5 5 6 6 6 7 7 8 9 8 7 8 9 11 12 12 12 13 14 17 20 25 29 32 35 37 39 43 48 53 56 57 61 67 61
100 99 78 69 49 19 20 18 16 14 12 10 9 7 5 6 5 5 5 5 6 7 7 7 8 9 9 8 8 9 11 12 14 14 15 17 19 21 25 29 32 35 39 41 46 56 58 66 69 70 74 69 63 65
94 91 67 60 25 19 20 16 14 14 10 9 8 5 6 5 5 5 6 6 7 8 8 9 10 9 9 10 11 12 14 15 16 18 20 22 24 29 34 34 34 39 47 57 70 79 84 81 82 77 75 74 75 77
81 61 64 36 20 18 16 14 13 12 10 9 7 6 6 6 6 6 7 8 8 9 10 11 10 10 11 12 12 13 15 18 21 25 28 30 34 36 31 30 39 50 60 80 95 92 93 93 87 78 82 84 80 79
61 52 40 21 21 18 14 12 13 10 10 9 6 7 7 6 7 8 8 9 10 11 13 13 14 14 14 16 19 23 27 32 36 35 31 30 29 26 29 40 52 61 83 98 99 100 97 90 84 86 89 86 87 89
38 37 23 20 21 18 15 14 14 12 12 9 8 8 8 8 9 10 11 13 14 16 18 21 22 22 23 25 26 28 27 27 26 26 24 23 23 29 39 51 64 81 95 94 98 100 99 91 85 93 91 88 86 85
27 23 23 22 20 18 14 14 15 13 12 10 10 9 9 9 9 11 14 17 21 28 30 28 24 21 20 20 22 22 23 23 20 20 22 24 27 37 45 50 60 79 87 99 99 100 98 94 94 100 97 90 89 88
23 24 24 22 19 18 14 16 15 14 13 11 11 10 11 10 10 14 18 23 27 25 24 22 20 19 19 21 21 20 19 18 18 21 24 30 40 48 53 55 70 95 99 99 95 96 94 99 99 100 100 95 94 93
24 23 25 22 20 17 15 17 16 16 14 12 12 11 12 10 11 15 21 22 19 19 18 18 19 18 17 16 15 16 17 18 20 23 28 35 44 54 65 75 96 100 99 95 95 95 91 94 96 100 98 96 95 94
25 25 25 22 21 16 16 18 17 17 14 13 13 12 12 12 12 14 16 18 18 17 17 15 13 13 14 14 16 17 19 21 23 27 32 42 54 69 84 91 99 100 98 86 84 83 83 90 98 98 92 93 91 89
26 26 25 22 20 16 18 18 19 18 15 15 15 13 13 13 13 13 13 14 15 14 14 12 14 16 17 18 19 20 21 22 24 30 36 44 53 67 87 98 98 96 94 94 94 90 93 98 97 93 92 92 87 84
26 27 26 22 19 17 20 19 21 20 17 16 16 13 14 14 14 13 13 12 12 12 13 16 18 19 19 21 22 23 24 26 29 33 40 45 52 59 72 82 88 96 98 98 99 98 96 94 96 94 90 83 84 82
27 28 26 22 18 19 22 20 22 21 18 17 18 14 15 15 14 15 13 12 12 15 16 18 19 21 22 25 25 27 29 31 35 37 41 51 58 64 71 82 87 88 92 91 90 91 92 89 88 84 85 83 80 80
28 27 25 22 18 22 22 22 25 21 18 18 19 15 16 16 15 15 15 15 16 18 19 20 22 24 27 30 32 33 36 40 39 38 44 48 52 61 68 73 78 85 86 84 86 89 86 84 85 87 82 80 79 75
25 24 25 21 21 25 22 26 26 22 19 18 20 16 16 17 17 16 17 17 19 20 22 26 29 31 33 34 36 37 40 43 45 49 51 54 62 68 71 78 86 88 92 92 89 88 89 89 86 82 81 82 78 75
22 24 24 22 26 27 24 32 28 22 20 20 22 20 16 18 18 18 19 20 21 23 26 28 33 34 39 42 42 47 54 58 62 68 74 72 73 77 80 84 87 91 92 90 90 90 90 88 85 84 82 76 70 71
23 24 22 24 31 26 30 36 30 25 21 20 23 24 18 20 20 19 19 21 22 25 32 35 41 46 51 56 61 70 70 73 74 75 77 81 87 87 85 85 88 91 93 94 94 92 88 82 76 70 67 67 68 72
24 22 24 28 29 27 36 38 30 28 24 22 22 28 23 20 21 19 20 22 25 28 34 39 46 56 61 69 71 73 78 84 86 84 81 78 79 80 83 83 81 82 82 79 76 73 67 62 60 60 62 65 72 80
23 23 28 29 26 29 38 36 31 30 26 24 24 29 29 24 21 22 22 23 25 28 30 36 40 46 56 64 69 74 74 72 73 72 72 75 75 72 70 70 67 64 62 60 58 58 59 63 70 78 84 89 91 90
24 27 29 26 27 35 39 35 32 32 27 26 26 31 36 32 28 25 25 27 27 28 28 30 34 42 48 50 50 51 54 57 58 58 56 57 56 54 54 55 54 55 58 63 70 77 84 88 89 89 86 80 74 73
28 29 26 25 32 36 38 38 35 33 29 27 28 32 38 42 39 35 32 32 32 31 31 31 31 32 33 36 43 49 50 51 48 44 50 53 53 52 52 56 61 66 71 78 85 86 82 76 73 70 69 70 69 69
25 22 26 31 44 39 38 35 36 33 29 28 30 33 41 49 52 52 54 57 51 44 43 44 49 54 55 54 54 55 56 58 61 64 66 69 73 79 83 86 87 82 78 74 71 68 66 62 60 61 64 68 71 69
23 27 34 41 40 37 35 34 34 32 29 30 32 34 45 50 53 58 67 74 81 81 80 78 77 80 83 84 86 88 89 88 87 85 84 83 82 81 80 77 74 72 68 66 64 61 62 65 68 69 68 64 56 47
24 27 33 37 31 31 31 31 30 30 30 31 33 37 49 59 66 73 78 81 84 86 90 87 83 85 88 86 85 87 88 86 86 88 87 87 85 79 74 73 74 76 75 75 73 71 69 65 58 51 44 36 28 24
24 26 28 28 29 28 28 27 28 29 30 34 34 34 40 52 62 71 76 82 87 88 88 88 84 83 79 78 79 79 80 82 82 80 79 78 76 74 76 78 77 73 70 67 62 54 45 39 32 26 24 21 18 15
24 24 24 24 25 23 26 26 27 29 32 34 34 35 39 49 60 67 73 79 84 84 85 90 92 90 89 88 86 88 86 83 83 84 84 80 77 76 74 70 65 58 50 40 34 30 25 23 21 18 16 14 13 12
20 21 21 22 23 23 24 26 28 30 31 33 33 34 36 44 54 58 66 68 74 79 82 84 86 86 85 85 85 84 83 83 82 78 73 66 62 57 49 43 37 32 29 26 23 21 19 18 15 13 12 11 10 10
19 20 20 21 22 23 24 26 28 30 29 30 31 33 35 38 45 49 53 56 60 64 68 71 73 75 77 79 78 75 69 64 61 57 54 51 47 41 35 30 27 25 24 22 19 17 14 12 11 10 9 9 9 9

GFSWCAN_250_rhum_318.txt.gz
RH
42 50 48 47 60 87 85 99 82 64 29 21 16 16 16 13 11 8 7 7 7 5 6 6 6 6 6 6 6 7 7 7 8 8 9 10 11 11 12 14 15 16 18 20 20 20 20 20 19 17 17 17 15 14
48 50 58 71 93 83 88 78 62 31 20 17 16 17 13 11 9 7 7 6 5 6 6 5 5 5 6 6 6 7 7 8 8 9 10 10 12 12 13 14 13 13 12 11 12 14 14 14 18 19 18 20 22 24
52 74 89 81 100 94 74 57 35 21 18 17 18 15 12 10 8 7 5 5 5 5 5 5 5 6 6 7 7 7 8 9 10 10 10 9 8 9 9 9 9 10 11 12 12 12 17 20 22 24 27 30 31 28
64 95 84 96 90 76 56 50 23 19 18 17 16 13 11 8 7 6 6 5 5 5 5 6 6 7 7 8 8 9 10 9 7 7 8 9 9 10 10 10 10 10 12 13 16 21 25 29 32 37 35 32 32 33
85 89 99 100 94 66 53 47 22 20 17 17 14 12 8 7 7 6 6 5 6 6 7 7 8 8 8 9 9 8 7 7 8 9 10 10 10 10 11 11 13 16 19 23 30 37 38 38 38 35 44 50 45 44
93 100 97 99 86 72 58 34 21 18 17 15 13 11 8 8 6 6 6 6 7 8 8 8 9 10 9 8 8 8 9 9 10 11 12 13 13 14 15 17 21 25 32 39 39 41 40 41 52 67 58 55 56 65
100 100 95 90 80 66 41 23 19 18 16 14 13 10 9 8 6 7 7 7 9 10 10 10 10 10 10 10 10 11 11 11 12 14 15 16 18 20 23 25 30 37 41 41 44 48 60 71 73 74 69 72 76 77
100 100 90 75 54 49 32 21 19 19 16 15 13 10 10 8 8 8 7 9 9 10 10 12 13 14 15 15 15 13 12 13 15 17 19 22 25 29 31 40 40 39 41 47 58 81 84 91 85 81 78 83 87 88
99 98 100 65 67 35 24 22 20 21 16 14 13 12 10 9 9 9 10 10 10 10 13 15 20 24 24 26 25 23 23 24 25 28 31 32 35 38 41 41 40 44 54 64 91 96 92 89 88 86 86 93 94 92
94 100 80 62 55 25 23 21 21 20 16 16 14 14 12 11 10 10 10 9 11 14 18 20 20 23 23 23 22 22 23 23 24 26 27 28 29 31 33 34 43 55 72 82 92 91 95 98 94 90 94 93 92 94
98 89 68 74 47 23 22 22 22 18 16 17 15 16 13 13 12 11 11 11 12 15 18 19 18 18 19 20 21 22 21 22 22 23 24 24 24 26 31 40 54 66 72 86 92 98 100 100 100 98 100 98 95 93
99 72 73 60 35 23 22 22 22 18 17 18 17 17 14 15 13 12 12 12 12 11 14 16 16 16 17 19 19 18 18 18 18 18 20 23 26 31 38 40 46 57 72 95 98 98 100 100 100 99 99 98 96 96
80 68 64 48 26 22 22 22 20 18 16 18 18 18 15 14 13 13 12 12 12 11 12 13 14 13 13 14 14 15 16 17 18 19 21 24 31 43 54 65 70 80 97 100 98 100 100 99 98 100 100 100 99 97
67 72 49 32 25 23 21 22 18 18 18 18 20 18 15 16 14 13 13 13 12 11 11 10 11 11 13 14 16 17 18 19 20 23 26 34 44 61 74 86 90 100 100 100 98 96 94 93 94 94 96 98 98 97
77 48 38 25 25 23 22 19 18 18 19 18 22 19 16 16 15 13 12 13 13 12 11 12 13 15 17 18 19 20 20 21 22 24 28 36 46 68 82 92 99 100 99 99 93 79 82 94 97 96 97 96 94 88
56 36 28 24 25 24 22 18 19 18 21 19 24 21 17 18 16 14 13 13 14 14 15 15 17 19 20 20 21 21 22 23 25 28 31 36 43 54 70 87 97 96 96 95 86 88 98 100 100 98 95 90 87 85
32 26 26 26 25 24 19 19 20 18 22 21 25 23 18 20 19 15 14 14 15 15 16 18 19 19 21 22 23 24 25 26 30 32 34 42 49 56 64 73 84 92 92 86 91 94 97 94 92 91 92 87 83 83
25 26 27 26 26 20 18 19 19 19 23 24 25 24 20 21 22 16 14 15 16 16 16 17 20 22 22 23 27 28 30 32 34 35 37 42 48 58 63 67 71 76 81 86 91 94 90 87 87 89 86 85 87 88
26 26 26 26 23 19 19 20 19 21 22 25 26 24 22 21 24 18 15 16 18 18 19 20 20 23 24 28 32 34 35 38 40 42 44 47 52 52 54 62 68 68 69 75 82 85 87 88 87 88 88 87 88 86
25 25 26 24 20 20 19 20 19 24 22 27 26 26 24 23 25 24 17 17 20 21 20 22 24 27 32 37 44 51 52 49 50 55 55 55 60 63 66 70 76 80 84 86 88 88 87 86 86 84 82 81 78 75
24 26 24 21 19 19 19 20 22 27 22 28 28 26 27 25 26 30 24 20 21 23 22 24 26 29 38 49 63 69 75 76 75 76 77 75 72 73 77 79 81 84 88 92 94 91 88 86 82 79 76 69 61 60
24 24 21 20 20 20 21 20 26 27 23 29 30 29 29 27 26 30 33 27 22 23 23 23 26 29 37 50 61 70 76 80 82 84 85 86 93 93 93 93 94 94 93 92 90 87 79 70 62 57 57 61 70 81
23 22 22 22 20 22 24 26 28 26 26 32 30 30 30 29 27 28 35 35 30 25 25 25 26 27 32 42 50 56 60 67 72 72 70 70 71 74 76 76 74 71 64 57 53 50 50 54 58 65 72 79 82 82
22 22 23 25 23 27 29 30 26 27 29 32 31 31 30 30 28 28 33 41 40 35 31 30 31 31 32 34 42 55 62 62 62 63 59 52 49 51 53 52 52 50 50 52 55 60 68 73 77 78 77 76 71 68
22 25 26 25 25 31 33 31 27 30 35 34 32 32 32 29 29 29 32 39 47 52 52 52 48 41 42 47 56 58 60 59 58 56 58 59 59 61 66 74 79 83 84 84 83 81 78 76 73 70 67 66 64 62
28 30 27 26 23 26 33 36 36 32 34 36 34 33 31 30 30 31 33 38 47 53 58 65 76 81 76 73 78 81 83 87 90 90 90 90 90 91 93 93 91 88 85 82 79 75 72 70 68 67 70 72 71 69
33 28 29 26 21 28 41 47 41 34 31 31 33 31 30 30 31 31 33 37 44 51 59 68 77 85 88 90 94 96 96 96 96 95 92 90 87 86 85 86 84 81 80 78 76 75 74 71 69 68 64 60 58 53
31 30 29 28 25 25 30 35 33 29 29 30 30 28 29 29 32 33 34 36 42 52 60 69 79 88 87 91 95 97 97 95 92 88 85 85 85 86 88 88 86 82 77 73 70 67 62 56 51 47 41 36 31 28
28 29 29 29 27 28 27 26 27 27 26 26 26 27 28 29 33 35 36 37 41 51 61 69 77 88 89 87 89 92 90 91 92 94 92 88 86 83 79 78 76 74 69 61 51 42 38 36 34 31 29 26 23 20
29 29 27 26 24 22 21 21 23 24 23 23 25 27 28 28 31 33 35 36 38 44 55 65 69 77 84 89 92 92 89 89 89 88 91 88 81 72 66 62 57 51 45 40 38 36 32 29 26 24 21 19 17 15
27 25 23 21 20 19 19 20 20 21 21 23 25 26 28 29 30 32 33 34 34 39 44 53 61 68 73 75 74 75 78 76 74 72 72 69 62 57 54 50 46 41 38 36 32 28 26 23 21 18 16 15 13 12
19 18 17 18 18 18 18 19 20 22 22 23 24 25 27 29 32 32 30 33 34 34 37 42 48 54 58 60 61 64 66 66 64 60 57 53 50 48 43 37 35 33 29 26 24 22 20 18 17 15 13 10 9 9
16 16 16 16 17 17 17 18 20 21 21 22 24 25 27 30 31 31 30 31 32 33 35 36 38 42 45 46 47 49 51 52 51 48 46 46 43 37 33 31 28 25 24 22 20 18 17 15 13 11 9 9 8 8

GFSWCAN_250_rhum_324.txt.gz
RH
63 85 76 63 52 58 55 43 57 53 65 74 58 40 27 14 13 13 10 10 11 11 9 9 7 7 8 10 9 8 7 7 7 7 7 8 8 9 10 10 10 11 12 12 14 15 16 18 20 21 21 23 24 25
72 77 66 52 59 66 49 57 59 64 66 67 53 37 20 14 14 13 12 12 12 12 10 9 9 10 11 13 12 11 9 8 8 7 7 7 7 7 8 10 12 14 16 17 17 18 19 21 22 23 24 27 32 35
70 73 63 65 73 60 54 68 69 57 75 65 50 28 18 14 15 13 12 12 14 12 11 10 9 9 9 11 12 12 11 10 9 9 9 9 10 9 9 9 10 10 12 14 19 22 24 27 32 36 36 37 36 33
86 85 66 80 80 64 63 70 77 70 84 55 42 22 16 16 15 13 13 12 14 12 11 10 10 10 9 11 12 12 11 11 11 10 10 10 10 10 10 11 11 11 12 13 14 16 18 20 22 24 25 26 31 36
85 76 78 84 85 73 70 74 70 82 75 62 36 21 16 16 15 14 14 13 14 12 12 10 11 10 9 11 12 14 13 14 17 16 14 13 13 12 12 12 12 12 13 14 16 18 21 26 33 41 51 56 55 52
75 79 91 94 76 87 65 89 83 90 73 69 43 20 17 18 15 15 14 13 14 12 12 10 11 10 9 10 12 15 16 17 19 23 22 18 18 17 17 18 19 20 24 27 31 39 47 50 58 58 59 60 51 48
78 92 88 92 75 77 69 76 81 83 77 60 42 22 18 18 15 16 15 14 14 12 12 10 10 10 10 9 11 13 16 18 20 21 26 26 24 22 21 23 29 32 37 40 47 54 55 64 68 68 63 65 65 66
82 97 91 70 76 66 75 76 95 82 74 58 38 25 19 19 16 16 16 15 14 12 11 10 10 10 10 10 10 11 13 15 17 20 23 25 27 28 29 31 35 38 42 46 56 66 67 75 78 78 78 85 96 99
92 94 78 77 87 70 84 91 95 75 77 53 32 24 19 18 16 17 17 16 14 12 12 10 10 11 11 11 12 12 11 12 14 16 19 24 25 27 33 36 45 48 57 58 67 77 86 88 90 92 96 99 98 100
79 72 81 85 88 66 96 95 94 79 67 58 30 22 20 19 17 18 18 17 16 13 12 11 11 12 12 13 14 14 14 13 13 15 16 19 23 27 33 40 52 60 86 76 88 99 99 94 92 94 99 99 100 100
73 80 100 84 84 83 84 100 73 85 58 47 26 21 21 18 18 18 20 20 18 15 14 12 12 12 13 14 14 15 16 15 15 15 17 20 22 27 36 44 59 68 86 97 99 97 96 100 100 100 98 99 100 100
75 86 98 89 92 90 100 100 73 87 53 36 24 20 22 18 19 20 22 22 19 16 15 14 13 14 15 14 16 17 17 16 16 17 18 20 23 27 37 48 63 80 94 98 98 99 100 95 95 94 94 100 100 100
80 97 99 81 100 96 100 86 78 73 47 31 22 20 24 19 21 22 23 24 21 18 16 16 14 14 15 15 17 18 19 18 20 20 22 23 27 30 41 55 68 77 90 95 97 98 100 98 93 93 96 97 99 97
97 94 100 86 100 100 100 81 83 78 36 29 22 22 24 20 22 24 24 26 22 20 18 18 16 16 16 16 17 20 21 21 20 23 26 28 34 40 49 64 75 81 89 97 98 95 92 95 98 96 89 99 99 98
100 98 76 100 100 94 100 80 77 63 33 28 23 23 24 22 25 26 25 29 26 22 20 20 20 18 17 18 19 21 22 24 24 26 28 31 35 40 49 66 80 90 92 95 96 98 96 94 90 86 85 87 90 91
100 88 100 93 100 93 93 97 76 46 31 27 24 26 25 24 28 28 27 29 31 26 23 22 23 21 20 20 21 23 25 26 27 29 32 35 39 44 48 55 66 76 83 86 87 87 87 84 83 84 84 84 88 90
95 100 100 100 84 97 85 82 68 39 32 25 24 28 25 25 29 30 28 31 35 31 27 25 24 28 25 22 22 28 32 32 33 35 37 40 46 53 55 57 62 69 73 77 84 90 92 94 94 93 93 93 88 90
100 100 100 85 88 99 97 91 43 34 30 23 24 30 26 26 30 31 29 34 38 34 30 28 26 26 32 29 24 27 30 35 43 50 56 60 65 69 71 73 76 79 85 87 88 90 91 93 95 97 96 95 93 90
100 97 79 78 97 100 99 73 32 29 27 23 26 32 27 28 31 30 32 36 38 34 33 31 28 27 29 37 35 29 28 31 39 48 61 70 77 85 89 90 90 91 93 95 96 93 89 85 84 83 83 83 84 81
90 82 76 94 100 91 75 34 24 22 22 28 28 29 27 30 34 31 34 40 38 35 34 32 30 28 29 33 46 48 36 31 34 41 42 46 58 62 67 70 72 73 74 74 75 77 76 76 76 74 70 67 65 65
87 80 80 98 76 56 32 22 18 18 24 31 28 29 28 32 35 36 34 38 37 34 31 31 30 29 29 31 41 54 60 54 42 42 48 57 59 64 72 74 73 72 70 71 72 74 76 80 85 89 90 90 89 90
95 95 100 75 45 30 22 17 16 19 24 28 27 30 34 34 36 39 35 32 36 36 32 31 30 30 29 30 33 51 62 66 69 66 60 63 69 72 78 86 93 94 94 95 96 97 98 97 96 93 90 88 88 87
82 66 57 40 31 22 17 18 20 20 21 25 30 34 35 34 36 39 37 33 35 37 35 31 29 30 30 30 32 37 52 64 74 80 81 83 88 90 91 91 93 96 96 93 94 96 96 94 94 93 90 90 91 89
37 35 31 25 21 16 18 20 22 21 20 23 31 36 35 30 37 40 33 32 35 36 33 30 28 29 30 30 32 35 41 56 66 74 83 83 85 84 84 84 85 87 90 93 93 91 89 88 86 84 81 78 74 68
23 22 21 18 16 19 20 22 21 21 22 24 27 32 34 33 38 38 34 35 37 33 29 28 28 28 30 30 32 33 38 45 57 64 71 74 76 77 78 77 78 79 80 81 80 79 78 76 73 67 59 58 56 53
19 20 17 18 19 20 21 21 24 25 25 25 27 28 34 39 40 38 36 36 33 28 26 25 26 28 29 30 31 34 36 40 44 50 57 65 67 70 73 75 76 73 70 72 75 75 73 68 65 58 54 52 49 43
20 19 19 18 19 19 22 25 27 28 29 32 35 36 36 38 37 32 30 27 25 25 23 23 25 27 29 30 31 33 36 38 38 41 47 52 56 60 65 68 68 67 66 68 66 59 55 55 54 50 43 40 38 32
19 18 18 20 21 22 24 26 27 31 32 32 34 32 30 30 27 23 22 21 22 22 22 23 24 26 28 30 31 32 33 34 36 37 40 43 47 50 54 54 52 54 56 53 49 48 45 42 40 37 34 31 28 28
19 19 20 22 22 24 25 26 32 31 32 30 29 26 23 20 19 19 19 20 21 22 22 23 25 26 27 28 30 30 32 32 33 34 36 37 38 41 44 44 43 42 41 40 40 38 37 35 32 31 29 27 26 24
22 22 23 23 23 23 24 26 30 28 26 23 20 19 18 17 17 17 18 18 20 21 22 24 25 25 25 26 28 29 30 30 31 32 33 34 35 36 37 37 36 35 35 34 34 33 32 31 30 28 26 24 23 22
23 24 26 26 26 26 27 27 25 22 19 17 16 16 16 16 17 18 18 19 20 21 22 23 23 23 24 25 26 27 28 29 29 30 31 32 33 34 34 33 32 32 31 30 30 28 27 25 24 23 22 21 20 18
22 23 25 25 26 27 25 22 19 17 16 16 15 15 15 16 18 18 18 19 19 20 21 22 22 22 23 24 25 25 26 27 28 28 29 29 29 30 29 29 29 28 27 27 26 25 24 22 22 21 20 19 16 11
20 20 20 19 19 19 19 18 16 15 15 15 14 15 15 16 17 18 18 19 19 20 20 20 21 22 23 24 24 24 25 26 26 26 26 26 26 25 24 24 25 25 25 24 23 22 21 20 19 18 15 11 10 10

GFSWCAN_250_rhum_330.txt.gz
RH
82 88 92 70 57 55 56 42 41 49 44 56 58 69 67 92 86 72 52 20 15 14 15 13 13 12 10 10 9 9 8 7 9 11 10 10 9 8 8 8 8 10 11 10 10 11 11 12 13 14 15 17 18 20
91 92 86 67 62 55 48 44 45 50 43 57 68 70 95 90 92 68 52 20 15 15 15 13 14 13 12 10 10 10 9 8 8 10 11 11 10 9 9 9 10 10 12 13 12 12 13 14 16 17 19 21 23 24
91 94 74 59 63 52 45 40 41 43 52 64 67 78 100 92 94 55 39 24 16 16 16 14 16 14 12 11 10 11 10 8 7 8 10 12 12 11 10 10 10 12 13 17 16 15 16 17 18 19 20 22 24 26
84 78 62 63 55 49 42 38 47 49 67 71 76 86 92 100 90 49 30 24 16 17 17 16 16 15 14 12 10 11 11 10 9 8 10 12 14 13 12 12 11 11 13 15 19 20 20 20 21 22 22 24 25 28
82 64 65 65 63 46 41 40 50 68 73 84 94 94 93 98 87 74 24 24 17 18 18 17 17 17 14 12 11 12 12 12 11 10 11 12 16 16 15 14 14 13 13 14 16 22 27 30 31 30 29 29 29 31
62 71 78 66 62 43 41 43 57 75 83 92 89 99 100 95 93 76 39 23 18 19 18 18 19 18 15 14 12 13 14 13 12 11 12 13 16 20 20 21 21 21 18 17 18 20 25 30 34 40 47 50 49 49
68 94 81 65 59 45 43 54 62 83 100 90 96 97 100 99 94 65 52 21 17 19 18 20 19 20 16 15 13 12 13 14 14 13 12 14 18 24 26 27 32 33 32 33 39 42 46 50 52 57 60 62 62 61
91 93 66 68 52 42 61 52 87 87 100 98 98 100 100 93 80 71 61 22 17 20 19 21 20 21 18 16 15 14 13 15 16 15 15 16 19 26 32 37 44 50 48 54 59 61 61 63 65 66 65 63 60 58
100 68 66 58 42 53 64 76 92 93 100 99 100 100 100 100 87 69 68 26 17 20 22 23 22 23 22 18 17 16 16 16 17 17 18 18 21 28 40 47 52 68 64 58 58 60 66 70 74 77 79 80 84 89
90 71 66 44 54 60 82 92 97 100 100 99 100 100 100 100 93 82 60 27 19 22 24 24 25 25 23 21 19 18 18 20 20 20 20 20 23 32 38 55 55 57 78 85 84 90 96 94 92 94 96 95 97 99
82 73 54 48 59 75 83 100 100 100 100 98 100 100 100 100 86 86 38 27 19 21 26 25 28 28 27 24 22 21 22 21 24 23 24 22 23 30 38 53 73 71 66 73 84 94 95 92 85 90 94 93 94 98
84 74 49 58 76 86 94 100 100 100 100 93 100 100 100 100 85 87 28 25 20 22 25 26 30 31 30 29 25 24 24 26 24 26 28 28 27 28 35 46 70 86 84 76 78 84 82 84 86 89 92 94 96 97
76 62 59 78 86 85 100 100 100 100 100 100 100 100 100 100 93 92 27 23 21 22 25 28 31 34 34 33 32 28 26 26 31 29 31 34 32 31 32 33 48 77 89 90 89 84 88 89 92 94 96 96 98 99
75 62 71 90 100 100 100 100 100 100 100 100 100 100 100 97 100 67 24 22 22 23 25 28 33 36 37 36 37 35 30 28 29 36 34 34 39 39 35 34 38 46 60 79 91 90 89 83 85 87 88 88 88 92
77 68 82 95 100 100 100 100 100 100 100 100 100 100 100 92 98 53 23 21 23 24 27 28 32 38 40 40 41 40 36 32 30 30 39 41 36 43 48 42 40 44 52 58 66 74 81 85 90 90 82 82 80 78
86 77 100 100 100 100 100 100 100 100 100 100 100 100 98 100 77 40 23 21 24 24 29 31 30 38 40 43 44 47 43 37 32 32 33 42 51 44 44 52 55 50 51 56 60 68 72 75 77 81 83 78 81 82
80 100 100 100 100 100 100 100 100 100 100 100 100 100 99 95 83 31 23 22 23 24 28 32 32 35 42 42 46 48 49 42 36 34 34 36 49 61 58 51 55 62 66 69 70 72 72 74 78 80 84 82 80 80
98 100 100 100 100 100 100 100 100 100 100 100 98 93 100 71 47 26 23 24 22 24 30 30 35 36 42 48 47 48 48 45 40 35 34 36 39 56 69 71 63 58 63 69 73 74 75 75 74 74 75 75 74 75
100 100 100 100 100 100 100 100 100 100 100 100 100 100 76 49 26 25 26 25 23 23 32 34 34 39 43 47 49 48 47 43 39 36 35 33 35 43 64 79 78 80 79 80 79 77 80 85 87 90 94 96 98 98
100 100 100 100 100 100 100 100 100 100 100 100 100 87 48 25 24 25 26 25 23 24 34 36 37 43 46 49 49 44 41 39 36 33 34 36 35 36 39 51 72 86 85 86 91 94 93 91 91 93 95 95 96 97
100 100 100 100 100 100 100 100 100 100 100 100 95 81 26 23 23 23 24 23 21 26 40 38 40 43 46 44 41 40 37 33 32 32 32 34 36 38 40 43 52 64 77 85 90 92 93 94 92 89 90 92 93 92
100 100 100 100 100 100 100 100 100 100 100 90 87 32 22 22 23 24 24 23 22 29 40 37 39 41 42 44 40 33 30 29 29 28 30 32 34 36 38 41 44 50 62 75 87 91 90 88 89 88 88 87 84 80
100 100 100 100 100 100 100 100 100 99 86 88 36 22 21 23 26 25 26 24 26 32 31 31 34 35 37 36 31 28 25 26 27 27 28 30 31 33 36 38 39 40 45 56 63 68 73 74 72 73 72 68 64 58
100 100 100 100 100 100 100 100 97 90 85 32 22 20 23 24 27 28 28 26 28 31 32 32 32 31 32 28 26 25 24 24 25 26 27 29 30 32 34 36 38 39 40 41 44 49 52 54 56 55 51 46 43 41
100 100 100 100 100 92 89 98 99 69 25 22 22 23 24 26 27 28 30 28 26 29 30 32 30 29 26 24 23 22 22 23 24 25 26 28 30 31 33 35 36 36 37 38 39 40 41 42 41 40 40 39 37 36
100 100 100 99 72 85 92 94 58 22 21 23 24 24 24 26 27 25 27 26 28 29 28 27 26 24 21 20 20 21 22 22 23 25 26 28 28 30 32 34 34 33 34 34 36 36 36 36 37 36 36 37 36 35
100 100 97 71 67 75 68 36 19 20 22 24 22 20 19 20 22 22 23 24 24 24 24 23 20 20 19 18 19 20 21 22 22 24 25 26 27 28 28 28 29 29 30 32 33 33 34 34 35 34 34 33 32 30
100 78 66 74 66 40 23 19 22 24 23 21 19 17 17 18 20 21 21 21 21 22 21 19 18 17 17 18 18 20 20 20 21 22 23 24 24 25 26 26 27 27 29 30 31 31 31 31 32 31 30 29 29 28
69 68 62 38 23 21 20 21 24 21 18 16 14 15 16 16 17 18 20 20 20 19 18 17 16 16 17 17 18 19 19 19 20 21 21 22 22 22 23 24 25 26 27 28 29 30 30 30 30 29 28 28 26 25
37 24 21 20 19 20 20 19 18 15 14 14 15 16 16 16 16 16 16 18 18 17 16 16 15 16 17 18 18 18 19 19 19 19 20 20 20 21 22 23 24 25 26 27 28 28 28 28 28 26 25 24 23 22
19 19 19 20 21 20 16 14 14 14 14 14 14 14 14 14 14 13 14 15 15 16 15 15 16 16 17 18 17 17 18 18 18 18 18 19 19 20 21 22 23 24 25 26 26 26 26 25 24 23 22 21 20 19
18 18 17 17 15 13 12 13 14 14 14 14 14 13 12 12 13 13 13 13 13 14 14 15 15 16 16 16 16 16 17 17 18 18 18 18 18 20 21 22 23 23 24 24 24 24 23 22 21 20 19 18 18 17
14 13 12 12 12 13 12 12 13 14 14 13 12 12 10 11 12 13 13 13 14 14 13 14 14 13 14 14 15 15 16 16 17 17 18 18 18 20 20 21 22 23 23 22 21 21 20 20 19 18 17 17 16 15